| time (UTC) | temp F | wind direction | speed knots | gust knots | rain 1hr in | rain 24hr in | rain mn in | humidity % | barometer mb |
| 20260507060738 | 53 | 327 | 6.1 | 13.0 | 0.00 | 0.51 | 0.00 | 84 | 1010.0 |
| 20260507060638 | 53 | 304 | 6.1 | 13.0 | 0.00 | 0.51 | 0.00 | 84 | 1010.0 |
| 20260507060532 | 53 | 310 | 6.1 | 13.0 | 0.00 | 0.51 | 0.00 | 83 | 1010.0 |
| 20260507060432 | 53 | 321 | 6.1 | 13.0 | 0.00 | 0.51 | 0.00 | 84 | 1010.0 |
| 20260507060328 | 53 | 331 | 5.2 | 13.0 | 0.00 | 0.51 | 0.00 | 84 | 1010.0 |
| 20260507060227 | 53 | 5 | 5.2 | 13.0 | 0.00 | 0.51 | 0.00 | 84 | 1010.0 |
| 20260507060120 | 53 | 5 | 5.2 | 13.0 | 0.00 | 0.51 | 0.00 | 84 | 1010.0 |
| 20260507060020 | 53 | 340 | 5.2 | 13.0 | 0.00 | 0.51 | 0.00 | 84 | 1010.1 |
| 20260507055914 | 53 | 311 | 5.2 | 13.0 | 0.00 | 0.51 | 0.00 | 84 | 1010.1 |
| 20260507055814 | 53 | 316 | 5.2 | 13.0 | 0.00 | 0.51 | 0.00 | 84 | 1010.1 |
| 20260507055707 | 53 | 329 | 6.1 | 13.0 | 0.00 | 0.51 | 0.00 | 84 | 1010.1 |
| 20260507055608 | 53 | 307 | 6.1 | 13.0 | 0.00 | 0.51 | 0.00 | 84 | 1010.0 |
| 20260507055503 | 53 | 300 | 7.0 | 13.0 | 0.00 | 0.51 | 0.00 | 84 | 1009.9 |
| 20260507055402 | 53 | 338 | 7.0 | 13.0 | 0.00 | 0.51 | 0.00 | 84 | 1009.9 |
| 20260507055257 | 53 | 316 | 7.8 | 13.0 | 0.00 | 0.51 | 0.00 | 84 | 1009.9 |
| 20260507055156 | 53 | 329 | 7.8 | 13.0 | 0.00 | 0.51 | 0.00 | 84 | 1009.9 |
| 20260507055051 | 53 | 331 | 7.8 | 13.0 | 0.00 | 0.51 | 0.00 | 84 | 1009.9 |
| 20260507054950 | 53 | 317 | 7.8 | 13.0 | 0.00 | 0.51 | 0.00 | 84 | 1009.9 |
| 20260507054844 | 53 | 311 | 7.8 | 13.0 | 0.00 | 0.51 | 0.00 | 84 | 1009.8 |
| 20260507054744 | 53 | 331 | 7.8 | 13.0 | 0.00 | 0.51 | 0.00 | 84 | 1009.9 |
| 20260507054639 | 53 | 321 | 8.7 | 13.0 | 0.00 | 0.51 | 0.00 | 84 | 1009.9 |
| 20260507054539 | 53 | 319 | 7.8 | 13.0 | 0.00 | 0.51 | 0.00 | 84 | 1009.9 |
| 20260507054457 | 53 | 306 | 7.8 | 12.2 | 0.00 | 0.51 | 0.00 | 85 | 1009.8 |
| 20260507054449 | 53 | 345 | 7.8 | 12.2 | 0.00 | 0.51 | 0.00 | 85 | 1009.8 |
| 20260507054226 | 53 | 315 | 7.0 | 12.2 | 0.00 | 0.51 | 0.00 | 85 | 1009.7 |
| 20260507054126 | 53 | 304 | 7.0 | 12.2 | 0.00 | 0.51 | 0.00 | 85 | 1009.8 |
| 20260507054043 | 53 | 325 | 6.1 | 12.2 | 0.00 | 0.51 | 0.00 | 85 | 1009.8 |
| 20260507054035 | 53 | 319 | 7.0 | 12.2 | 0.00 | 0.51 | 0.00 | 85 | 1009.8 |
| 20260507053814 | 53 | 321 | 6.1 | 11.3 | 0.00 | 0.51 | 0.00 | 85 | 1009.8 |
| 20260507053714 | 53 | 332 | 6.1 | 11.3 | 0.00 | 0.51 | 0.00 | 85 | 1009.7 |
| 20260507053631 | 53 | 309 | 5.2 | 11.3 | 0.00 | 0.51 | 0.00 | 85 | 1009.8 |
| 20260507053623 | 53 | 331 | 5.2 | 11.3 | 0.00 | 0.51 | 0.00 | 85 | 1009.8 |
| 20260507053403 | 53 | 331 | 5.2 | 9.6 | 0.00 | 0.51 | 0.00 | 85 | 1009.7 |
| 20260507053302 | 53 | 336 | 5.2 | 9.6 | 0.00 | 0.51 | 0.00 | 85 | 1009.8 |
| 20260507053158 | 53 | 317 | 5.2 | 9.6 | 0.00 | 0.51 | 0.00 | 85 | 1009.8 |
| 20260507053056 | 53 | 325 | 5.2 | 9.6 | 0.00 | 0.51 | 0.00 | 85 | 1009.7 |
| 20260507053013 | 53 | 333 | 5.2 | 9.6 | 0.00 | 0.51 | 0.00 | 85 | 1009.8 |
| 20260507053005 | 53 | 321 | 5.2 | 9.6 | 0.00 | 0.51 | 0.00 | 85 | 1009.8 |
| 20260507052744 | 53 | 333 | 5.2 | 9.6 | 0.00 | 0.51 | 0.00 | 85 | 1009.8 |
| 20260507052644 | 53 | 342 | 5.2 | 9.6 | 0.00 | 0.51 | 0.00 | 85 | 1009.8 |
| 20260507052538 | 53 | 324 | 4.3 | 9.6 | 0.00 | 0.51 | 0.00 | 85 | 1009.8 |
| 20260507052437 | 53 | 336 | 4.3 | 9.6 | 0.00 | 0.51 | 0.00 | 86 | 1009.8 |
| 20260507052332 | 53 | 327 | 4.3 | 9.6 | 0.00 | 0.51 | 0.00 | 86 | 1009.8 |
| 20260507052232 | 53 | 317 | 4.3 | 9.6 | 0.00 | 0.51 | 0.00 | 85 | 1009.9 |
| 20260507052149 | 53 | 321 | 4.3 | 9.6 | 0.00 | 0.51 | 0.00 | 86 | 1009.9 |
| 20260507052141 | 53 | 328 | 4.3 | 9.6 | 0.00 | 0.51 | 0.00 | 86 | 1009.8 |
| 20260507051922 | 53 | 329 | 4.3 | 9.6 | 0.00 | 0.51 | 0.00 | 86 | 1009.9 |
| 20260507051838 | 53 | 346 | 5.2 | 9.6 | 0.00 | 0.51 | 0.00 | 86 | 1010.0 |
| 20260507051831 | 53 | 331 | 5.2 | 9.6 | 0.00 | 0.51 | 0.00 | 86 | 1010.0 |
| 20260507051631 | 53 | 317 | 5.2 | 9.6 | 0.00 | 0.51 | 0.00 | 86 | 1009.9 |
| 20260507051625 | 53 | 344 | 5.2 | 9.6 | 0.00 | 0.51 | 0.00 | 86 | 1010.0 |
| 20260507051427 | 53 | 332 | 6.1 | 9.6 | 0.00 | 0.51 | 0.00 | 86 | 1010.0 |
| 20260507051419 | 53 | 301 | 6.1 | 9.6 | 0.00 | 0.51 | 0.00 | 86 | 1009.9 |
| 20260507051203 | 53 | 355 | 6.1 | 9.6 | 0.00 | 0.51 | 0.00 | 86 | 1010.1 |
| 20260507051056 | 53 | 355 | 6.1 | 9.6 | 0.00 | 0.51 | 0.00 | 86 | 1010.1 |
| 20260507050956 | 53 | 330 | 6.1 | 9.6 | 0.00 | 0.51 | 0.00 | 86 | 1010.1 |
| 20260507050850 | 53 | 314 | 5.2 | 12.2 | 0.00 | 0.51 | 0.00 | 86 | 1010.0 |
| 20260507050750 | 53 | 325 | 5.2 | 12.2 | 0.00 | 0.51 | 0.00 | 86 | 1010.0 |
| 20260507050645 | 53 | 343 | 5.2 | 12.2 | 0.00 | 0.51 | 0.00 | 86 | 1009.9 |
| 20260507050544 | 53 | 315 | 6.1 | 12.2 | 0.00 | 0.51 | 0.00 | 86 | 1009.9 |
| 20260507050438 | 53 | 327 | 6.1 | 12.2 | 0.00 | 0.51 | 0.00 | 86 | 1009.8 |
| 20260507050338 | 53 | 318 | 6.1 | 12.2 | 0.00 | 0.51 | 0.00 | 86 | 1009.8 |
| 20260507050255 | 53 | 320 | 6.1 | 12.2 | 0.00 | 0.51 | 0.00 | 86 | 1009.7 |
| 20260507050247 | 53 | 321 | 6.1 | 12.2 | 0.00 | 0.51 | 0.00 | 86 | 1009.8 |
| 20260507050026 | 53 | 326 | 7.0 | 12.2 | 0.00 | 0.51 | 0.00 | 86 | 1009.7 |
| 20260507045926 | 53 | 331 | 7.0 | 12.2 | 0.00 | 0.51 | 0.00 | 86 | 1009.8 |
| 20260507045820 | 53 | 335 | 7.0 | 12.2 | 0.00 | 0.51 | 0.00 | 86 | 1009.8 |
| 20260507045720 | 53 | 350 | 6.1 | 12.2 | 0.00 | 0.51 | 0.00 | 86 | 1009.9 |
| 20260507045614 | 53 | 307 | 6.1 | 12.2 | 0.00 | 0.51 | 0.00 | 86 | 1009.9 |
| 20260507045517 | 53 | 334 | 6.1 | 12.2 | 0.00 | 0.51 | 0.00 | 86 | 1009.9 |
| 20260507045510 | 53 | 336 | 5.2 | 12.2 | 0.00 | 0.51 | 0.00 | 86 | 1010.0 |
| 20260507045506 | 54 | 333 | 5.2 | 12.2 | 0.00 | 0.51 | 0.00 | 86 | 1009.9 |
| 20260507045502 | 54 | 338 | 5.2 | 12.2 | 0.00 | 0.51 | 0.00 | 86 | 1009.9 |
| 20260507045449 | 53 | 337 | 6.1 | 12.2 | 0.00 | 0.51 | 0.00 | 86 | 1010.0 |
| 20260507044957 | 54 | 331 | 4.3 | 12.2 | 0.00 | 0.51 | 0.00 | 86 | 1010.0 |
| 20260507044856 | 54 | 334 | 4.3 | 8.7 | 0.00 | 0.51 | 0.00 | 86 | 1010.0 |
| 20260507044750 | 54 | 327 | 4.3 | 8.7 | 0.00 | 0.51 | 0.00 | 86 | 1010.0 |
| 20260507044651 | 54 | 329 | 5.2 | 8.7 | 0.00 | 0.51 | 0.00 | 86 | 1010.0 |
| 20260507044544 | 54 | 343 | 5.2 | 11.3 | 0.00 | 0.51 | 0.00 | 86 | 1010.1 |
| 20260507044444 | 54 | 328 | 5.2 | 11.3 | 0.00 | 0.51 | 0.00 | 86 | 1010.1 |
| 20260507044337 | 54 | 327 | 5.2 | 11.3 | 0.00 | 0.51 | 0.00 | 86 | 1010.2 |
| 20260507044254 | 54 | 319 | 5.2 | 11.3 | 0.00 | 0.51 | 0.00 | 86 | 1010.2 |
| 20260507044248 | 54 | 323 | 5.2 | 11.3 | 0.00 | 0.51 | 0.00 | 86 | 1010.2 |
| 20260507044032 | 54 | 355 | 5.2 | 11.3 | 0.00 | 0.51 | 0.00 | 86 | 1010.3 |
| 20260507043926 | 54 | 322 | 5.2 | 11.3 | 0.00 | 0.51 | 0.00 | 86 | 1010.4 |
| 20260507043826 | 54 | 329 | 4.3 | 11.3 | 0.00 | 0.51 | 0.00 | 86 | 1010.4 |
| 20260507043720 | 54 | 338 | 4.3 | 11.3 | 0.00 | 0.51 | 0.00 | 86 | 1010.3 |
| 20260507043621 | 54 | 317 | 4.3 | 11.3 | 0.00 | 0.51 | 0.00 | 86 | 1010.4 |
| 20260507043514 | 54 | 331 | 4.3 | 11.3 | 0.00 | 0.51 | 0.00 | 86 | 1010.3 |
| 20260507043414 | 54 | 304 | 4.3 | 11.3 | 0.00 | 0.51 | 0.00 | 86 | 1010.2 |
| 20260507043331 | 54 | 342 | 5.2 | 11.3 | 0.00 | 0.51 | 0.00 | 85 | 1010.0 |
| 20260507043323 | 54 | 331 | 5.2 | 11.3 | 0.00 | 0.51 | 0.00 | 85 | 1010.1 |
| 20260507043103 | 54 | 342 | 5.2 | 11.3 | 0.00 | 0.51 | 0.00 | 85 | 1010.0 |
| 20260507043003 | 54 | 316 | 5.2 | 11.3 | 0.00 | 0.51 | 0.00 | 85 | 1010.0 |
| 20260507042857 | 54 | 309 | 5.2 | 11.3 | 0.00 | 0.51 | 0.00 | 85 | 1009.9 |
| 20260507042756 | 54 | 331 | 5.2 | 11.3 | 0.00 | 0.51 | 0.00 | 85 | 1009.9 |
| 20260507042651 | 54 | 355 | 5.2 | 11.3 | 0.00 | 0.51 | 0.00 | 85 | 1010.0 |
| 20260507042550 | 54 | 329 | 5.2 | 10.4 | 0.00 | 0.51 | 0.00 | 85 | 1010.1 |
| 20260507042444 | 54 | 335 | 5.2 | 10.4 | 0.00 | 0.51 | 0.00 | 85 | 1010.0 |
| 20260507042345 | 55 | 317 | 5.2 | 10.4 | 0.00 | 0.51 | 0.00 | 85 | 1010.0 |
| 20260507042239 | 55 | 327 | 5.2 | 10.4 | 0.00 | 0.51 | 0.00 | 85 | 1010.0 |
| 20260507042139 | 55 | 309 | 5.2 | 10.4 | 0.00 | 0.51 | 0.00 | 85 | 1010.0 |
| 20260507042033 | 55 | 351 | 5.2 | 10.4 | 0.00 | 0.51 | 0.00 | 85 | 1010.0 |
| 20260507041932 | 55 | 334 | 5.2 | 10.4 | 0.00 | 0.51 | 0.00 | 85 | 1010.1 |
| 20260507041826 | 55 | 331 | 5.2 | 10.4 | 0.00 | 0.51 | 0.00 | 85 | 1010.1 |
| 20260507041743 | 55 | 5 | 5.2 | 10.4 | 0.00 | 0.51 | 0.00 | 85 | 1010.0 |
| 20260507041736 | 55 | 342 | 5.2 | 10.4 | 0.00 | 0.51 | 0.00 | 85 | 1010.0 |
| 20260507041601 | 55 | 331 | 4.3 | 10.4 | 0.00 | 0.51 | 0.00 | 85 | 1009.9 |
| 20260507041551 | 55 | 327 | 5.2 | 10.4 | 0.00 | 0.51 | 0.00 | 85 | 1009.9 |
| 20260507041430 | 55 | 348 | 5.2 | 10.4 | 0.00 | 0.51 | 0.00 | 85 | 1009.9 |
| 20260507041209 | 55 | 346 | 4.3 | 8.7 | 0.00 | 0.51 | 0.00 | 85 | 1009.9 |
| 20260507041107 | 55 | 346 | 4.3 | 8.7 | 0.00 | 0.51 | 0.00 | 85 | 1010.0 |
| 20260507041000 | 55 | 334 | 4.3 | 8.7 | 0.00 | 0.51 | 0.00 | 85 | 1010.0 |
| 20260507040901 | 55 | 311 | 4.3 | 8.7 | 0.00 | 0.51 | 0.00 | 85 | 1010.0 |
| 20260507040755 | 55 | 340 | 4.3 | 8.7 | 0.00 | 0.51 | 0.00 | 85 | 1009.9 |
| 20260507040716 | 55 | 317 | 3.5 | 7.8 | 0.00 | 0.51 | 0.00 | 85 | 1009.9 |
| 20260507040708 | 55 | 340 | 3.5 | 7.8 | 0.00 | 0.51 | 0.00 | 85 | 1009.9 |
| 20260507040453 | 55 | 323 | 3.5 | 7.8 | 0.00 | 0.51 | 0.00 | 85 | 1009.9 |
| 20260507040352 | 55 | 309 | 3.5 | 7.8 | 0.00 | 0.51 | 0.00 | 85 | 1010.0 |
| 20260507040252 | 55 | 339 | 3.5 | 7.8 | 0.00 | 0.51 | 0.00 | 85 | 1010.0 |
| 20260507040153 | 55 | 326 | 3.5 | 7.8 | 0.00 | 0.51 | 0.00 | 85 | 1009.9 |
| 20260507040116 | 55 | 324 | 3.5 | 7.8 | 0.00 | 0.51 | 0.51 | 85 | 1010.0 |
| 20260507040108 | 55 | 337 | 3.5 | 7.8 | 0.00 | 0.51 | 0.00 | 85 | 1010.0 |
| 20260507035847 | 55 | 328 | 3.5 | 7.8 | 0.00 | 0.51 | 0.51 | 85 | 1010.0 |
| 20260507035747 | 55 | 329 | 3.5 | 7.8 | 0.00 | 0.51 | 0.51 | 85 | 1010.1 |
| 20260507035641 | 55 | 328 | 3.5 | 7.8 | 0.00 | 0.51 | 0.51 | 85 | 1010.2 |
| 20260507035556 | 55 | 331 | 3.5 | 7.8 | 0.00 | 0.51 | 0.51 | 85 | 1010.0 |
| 20260507035549 | 55 | 329 | 3.5 | 7.8 | 0.00 | 0.51 | 0.51 | 85 | 1010.0 |
| 20260507035335 | 55 | 331 | 3.5 | 7.8 | 0.00 | 0.51 | 0.51 | 85 | 1010.0 |
| 20260507035229 | 55 | 332 | 3.5 | 7.8 | 0.00 | 0.51 | 0.51 | 85 | 1010.0 |
| 20260507035129 | 55 | 315 | 3.5 | 7.8 | 0.00 | 0.51 | 0.51 | 85 | 1009.9 |
| 20260507035023 | 55 | 330 | 3.5 | 7.8 | 0.00 | 0.51 | 0.51 | 85 | 1009.9 |
| 20260507034923 | 55 | 329 | 3.5 | 7.8 | 0.00 | 0.51 | 0.51 | 85 | 1009.9 |
| 20260507034821 | 55 | 333 | 3.5 | 7.8 | 0.00 | 0.51 | 0.51 | 85 | 1009.7 |
| 20260507034720 | 55 | 334 | 3.5 | 7.8 | 0.00 | 0.51 | 0.51 | 85 | 1009.7 |
| 20260507034620 | 55 | 339 | 4.3 | 7.8 | 0.00 | 0.51 | 0.51 | 85 | 1009.7 |
| 20260507034540 | 55 | 309 | 4.3 | 7.8 | 0.00 | 0.51 | 0.51 | 85 | 1009.9 |
| 20260507034532 | 55 | 338 | 4.3 | 7.8 | 0.00 | 0.51 | 0.51 | 85 | 1009.8 |
| 20260507034320 | 55 | 302 | 4.3 | 7.8 | 0.00 | 0.51 | 0.51 | 85 | 1010.1 |
| 20260507034219 | 55 | 302 | 4.3 | 7.8 | 0.00 | 0.51 | 0.51 | 85 | 1010.1 |
| 20260507034112 | 55 | 285 | 4.3 | 7.8 | 0.00 | 0.51 | 0.51 | 85 | 1010.1 |
| 20260507034013 | 55 | 285 | 4.3 | 7.8 | 0.00 | 0.51 | 0.51 | 85 | 1010.0 |
| 20260507033907 | 55 | 306 | 4.3 | 7.8 | 0.00 | 0.51 | 0.51 | 85 | 1009.9 |
| 20260507033807 | 55 | 328 | 4.3 | 8.7 | 0.00 | 0.51 | 0.51 | 85 | 1009.8 |
| 20260507033701 | 55 | 333 | 4.3 | 8.7 | 0.00 | 0.51 | 0.51 | 85 | 1009.7 |
| 20260507033601 | 55 | 344 | 4.3 | 8.7 | 0.00 | 0.51 | 0.51 | 85 | 1009.8 |
| 20260507033534 | 55 | 325 | 4.3 | 8.7 | 0.00 | 0.51 | 0.51 | 85 | 1009.8 |
| 20260507033529 | 55 | 332 | 4.3 | 8.7 | 0.00 | 0.51 | 0.51 | 85 | 1009.8 |
| 20260507033521 | 55 | 346 | 4.3 | 8.7 | 0.00 | 0.51 | 0.51 | 85 | 1009.8 |
| 20260507033149 | 55 | 331 | 4.3 | 8.7 | 0.00 | 0.51 | 0.51 | 85 | 1009.9 |
| 20260507033107 | 55 | 325 | 4.3 | 8.7 | 0.00 | 0.51 | 0.51 | 85 | 1009.9 |
| 20260507033059 | 55 | 311 | 4.3 | 8.7 | 0.00 | 0.51 | 0.51 | 85 | 1010.0 |
| 20260507032837 | 55 | 321 | 4.3 | 8.7 | 0.00 | 0.51 | 0.51 | 85 | 1009.8 |
| 20260507032737 | 55 | 300 | 5.2 | 8.7 | 0.00 | 0.51 | 0.51 | 85 | 1009.6 |
| 20260507032630 | 55 | 318 | 5.2 | 8.7 | 0.00 | 0.51 | 0.51 | 85 | 1009.5 |
| 20260507032531 | 55 | 333 | 5.2 | 8.7 | 0.00 | 0.51 | 0.51 | 85 | 1009.5 |
| 20260507032448 | 55 | 315 | 5.2 | 8.7 | 0.00 | 0.51 | 0.51 | 85 | 1009.4 |
| 20260507032439 | 55 | 324 | 5.2 | 8.7 | 0.00 | 0.51 | 0.51 | 85 | 1009.5 |
| 20260507032218 | 55 | 355 | 5.2 | 8.7 | 0.00 | 0.51 | 0.51 | 84 | 1009.3 |
| 20260507032140 | 56 | 338 | 5.2 | 8.7 | 0.00 | 0.51 | 0.51 | 84 | 1009.1 |
| 20260507032133 | 55 | 332 | 5.2 | 8.7 | 0.00 | 0.51 | 0.51 | 84 | 1009.2 |
| 20260507031917 | 56 | 342 | 5.2 | 8.7 | 0.00 | 0.51 | 0.51 | 84 | 1009.1 |
| 20260507031804 | 56 | 0 | 5.2 | 13.0 | 0.00 | 0.51 | 0.51 | 84 | 1009.1 |
| 20260507031703 | 56 | 345 | 4.3 | 13.0 | 0.00 | 0.51 | 0.51 | 84 | 1009.2 |
| 20260507031557 | 56 | 5 | 4.3 | 13.0 | 0.00 | 0.51 | 0.51 | 84 | 1009.4 |
| 20260507031457 | 56 | 18 | 5.2 | 13.0 | 0.00 | 0.51 | 0.51 | 84 | 1009.4 |
| 20260507031351 | 56 | 316 | 5.2 | 13.0 | 0.00 | 0.51 | 0.51 | 84 | 1009.3 |
| 20260507031251 | 56 | 5 | 5.2 | 13.0 | 0.00 | 0.51 | 0.51 | 84 | 1009.2 |
| 20260507031145 | 56 | 13 | 5.2 | 13.0 | 0.00 | 0.51 | 0.51 | 84 | 1009.2 |
| 20260507031046 | 56 | 316 | 5.2 | 13.0 | 0.00 | 0.51 | 0.51 | 84 | 1009.3 |
| 20260507031002 | 56 | 338 | 6.1 | 13.0 | 0.00 | 0.51 | 0.51 | 84 | 1009.7 |
| 20260507030955 | 56 | 342 | 5.2 | 13.0 | 0.00 | 0.51 | 0.51 | 84 | 1009.6 |
| 20260507030734 | 56 | 346 | 6.1 | 13.0 | 0.00 | 0.51 | 0.51 | 84 | 1009.7 |
| 20260507030633 | 56 | 355 | 7.0 | 13.0 | 0.00 | 0.51 | 0.51 | 84 | 1009.8 |
| 20260507030529 | 56 | 348 | 7.0 | 13.0 | 0.00 | 0.51 | 0.51 | 84 | 1009.7 |
| 20260507030428 | 56 | 335 | 7.0 | 13.0 | 0.00 | 0.51 | 0.51 | 84 | 1009.6 |
| 20260507030344 | 56 | 336 | 7.0 | 13.0 | 0.00 | 0.51 | 0.51 | 84 | 1009.6 |
| 20260507030337 | 56 | 355 | 7.0 | 13.0 | 0.00 | 0.51 | 0.51 | 84 | 1009.6 |
| 20260507030114 | 56 | 355 | 7.0 | 13.0 | 0.00 | 0.51 | 0.51 | 84 | 1009.6 |
| 20260507030015 | 56 | 330 | 7.0 | 13.0 | 0.00 | 0.51 | 0.51 | 84 | 1009.6 |
| 20260507025909 | 56 | 342 | 7.0 | 13.0 | 0.00 | 0.51 | 0.51 | 84 | 1009.7 |
| 20260507025830 | 56 | 355 | 6.1 | 11.3 | 0.00 | 0.51 | 0.51 | 84 | 1009.6 |
| 20260507025826 | 56 | 339 | 6.1 | 11.3 | 0.00 | 0.51 | 0.51 | 84 | 1009.5 |
| 20260507025819 | 56 | 350 | 7.0 | 13.0 | 0.00 | 0.51 | 0.51 | 84 | 1009.7 |
| 20260507025803 | 56 | 9 | 7.0 | 13.0 | 0.00 | 0.51 | 0.51 | 84 | 1009.7 |
| 20260507025642 | 56 | 310 | 6.1 | 11.3 | 0.00 | 0.51 | 0.51 | 84 | 1009.6 |
| 20260507025407 | 56 | 9 | 6.1 | 11.3 | 0.00 | 0.51 | 0.51 | 84 | 1009.5 |
| 20260507025151 | 56 | 331 | 6.1 | 11.3 | 0.00 | 0.51 | 0.51 | 84 | 1009.5 |
| 20260507025108 | 56 | 341 | 5.2 | 13.0 | 0.00 | 0.51 | 0.51 | 84 | 1009.4 |
| 20260507025100 | 56 | 341 | 6.1 | 13.0 | 0.00 | 0.51 | 0.51 | 84 | 1009.5 |
| 20260507024839 | 56 | 333 | 5.2 | 13.0 | 0.00 | 0.51 | 0.51 | 84 | 1009.5 |
| 20260507024822 | 57 | 344 | 7.0 | 12.2 | 0.00 | 0.51 | 0.51 | 84 | 1009.6 |
| 20260507024812 | 56 | 355 | 6.1 | 13.0 | 0.00 | 0.51 | 0.51 | 84 | 1009.5 |
| 20260507024651 | 56 | 329 | 6.1 | 13.0 | 0.00 | 0.51 | 0.51 | 84 | 1009.4 |
| 20260507024636 | 56 | 338 | 6.1 | 13.0 | 0.00 | 0.51 | 0.51 | 84 | 1009.5 |
| 20260507024525 | 56 | 0 | 6.1 | 13.0 | 0.00 | 0.51 | 0.51 | 84 | 1009.6 |
| 20260507024511 | 56 | 355 | 6.1 | 13.0 | 0.00 | 0.51 | 0.51 | 84 | 1009.6 |
| 20260507024352 | 56 | 337 | 6.1 | 13.0 | 0.00 | 0.51 | 0.51 | 84 | 1009.6 |
| 20260507024014 | 57 | 11 | 7.0 | 13.0 | 0.00 | 0.51 | 0.51 | 84 | 1009.6 |
| 20260507023956 | 57 | 342 | 6.1 | 13.0 | 0.00 | 0.51 | 0.51 | 84 | 1009.6 |
| 20260507023950 | 57 | 350 | 6.1 | 13.0 | 0.00 | 0.51 | 0.51 | 84 | 1009.7 |
| 20260507023941 | 57 | 328 | 7.0 | 13.0 | 0.00 | 0.51 | 0.51 | 84 | 1009.6 |
| 20260507023604 | 57 | 326 | 6.1 | 13.0 | 0.00 | 0.51 | 0.51 | 84 | 1009.7 |
| 20260507023503 | 57 | 328 | 6.1 | 13.0 | 0.00 | 0.51 | 0.51 | 84 | 1009.6 |
| 20260507023357 | 57 | 346 | 5.2 | 13.0 | 0.00 | 0.51 | 0.51 | 84 | 1009.6 |
| 20260507023314 | 57 | 326 | 5.2 | 13.0 | 0.00 | 0.51 | 0.51 | 84 | 1009.5 |
| 20260507023306 | 57 | 342 | 5.2 | 13.0 | 0.00 | 0.51 | 0.51 | 84 | 1009.5 |
| 20260507023050 | 57 | 347 | 4.3 | 10.4 | 0.00 | 0.51 | 0.51 | 84 | 1009.4 |
| 20260507022945 | 57 | 340 | 4.3 | 10.4 | 0.00 | 0.51 | 0.51 | 84 | 1009.4 |
| 20260507022844 | 57 | 355 | 4.3 | 7.0 | 0.00 | 0.51 | 0.51 | 84 | 1009.5 |
| 20260507022739 | 57 | 335 | 4.3 | 7.0 | 0.00 | 0.51 | 0.51 | 84 | 1009.4 |
| 20260507022639 | 57 | 344 | 3.5 | 7.0 | 0.00 | 0.51 | 0.51 | 84 | 1009.4 |
| 20260507022555 | 57 | 341 | 3.5 | 7.0 | 0.00 | 0.51 | 0.51 | 84 | 1009.4 |
| 20260507022548 | 57 | 344 | 3.5 | 7.0 | 0.00 | 0.51 | 0.51 | 84 | 1009.4 |
| 20260507022327 | 57 | 329 | 3.5 | 7.0 | 0.00 | 0.51 | 0.51 | 84 | 1009.4 |
| 20260507022227 | 57 | 328 | 3.5 | 7.0 | 0.00 | 0.51 | 0.51 | 83 | 1009.3 |
| 20260507022144 | 57 | 332 | 4.3 | 7.0 | 0.00 | 0.51 | 0.51 | 83 | 1009.2 |
| 20260507022135 | 57 | 331 | 3.5 | 7.0 | 0.00 | 0.51 | 0.51 | 83 | 1009.3 |
| 20260507021939 | 57 | 310 | 3.5 | 13.9 | 0.00 | 0.51 | 0.51 | 83 | 1009.2 |
| 20260507021930 | 57 | 337 | 4.3 | 7.0 | 0.00 | 0.51 | 0.51 | 83 | 1009.2 |
| 20260507021709 | 57 | 302 | 3.5 | 13.9 | 0.00 | 0.51 | 0.51 | 83 | 1009.3 |
| 20260507021609 | 58 | 293 | 3.5 | 13.9 | 0.00 | 0.51 | 0.51 | 83 | 1009.3 |
| 20260507021504 | 58 | 292 | 4.3 | 13.9 | 0.00 | 0.51 | 0.51 | 82 | 1009.3 |
| 20260507021404 | 58 | 293 | 5.2 | 13.9 | 0.00 | 0.51 | 0.51 | 83 | 1009.2 |
| 20260507021320 | 58 | 307 | 5.2 | 13.9 | 0.00 | 0.51 | 0.51 | 82 | 1009.3 |
| 20260507021313 | 58 | 314 | 5.2 | 13.9 | 0.00 | 0.51 | 0.51 | 82 | 1009.2 |
| 20260507021115 | 58 | 327 | 6.1 | 13.9 | 0.00 | 0.51 | 0.51 | 82 | 1009.1 |
| 20260507021105 | 58 | 315 | 6.1 | 13.9 | 0.00 | 0.51 | 0.51 | 82 | 1009.2 |
| 20260507020844 | 58 | 283 | 7.0 | 13.9 | 0.00 | 0.51 | 0.51 | 82 | 1009.1 |
| 20260507020745 | 58 | 287 | 7.0 | 13.9 | 0.00 | 0.51 | 0.51 | 82 | 1009.1 |
| 20260507020703 | 58 | 304 | 7.8 | 13.9 | 0.00 | 0.51 | 0.51 | 82 | 1009.2 |
| 20260507020654 | 58 | 276 | 7.0 | 13.9 | 0.00 | 0.51 | 0.51 | 82 | 1009.2 |
| 20260507020456 | 58 | 300 | 7.0 | 13.9 | 0.00 | 0.51 | 0.51 | 82 | 1009.3 |
| 20260507020448 | 58 | 301 | 7.0 | 13.9 | 0.00 | 0.51 | 0.51 | 82 | 1009.3 |
| 20260507020227 | 58 | 308 | 7.0 | 13.9 | 0.00 | 0.51 | 0.51 | 82 | 1009.2 |
| 20260507020145 | 58 | 273 | 7.0 | 13.9 | 0.00 | 0.51 | 0.51 | 82 | 1009.2 |
| 20260507020137 | 58 | 300 | 7.0 | 13.9 | 0.00 | 0.51 | 0.51 | 82 | 1009.2 |
| 20260507015921 | 58 | 289 | 6.1 | 13.9 | 0.00 | 0.51 | 0.51 | 82 | 1009.2 |
| 20260507015816 | 58 | 313 | 7.0 | 13.0 | 0.00 | 0.51 | 0.51 | 82 | 1009.2 |
| 20260507015733 | 58 | 300 | 6.1 | 12.2 | 0.00 | 0.51 | 0.51 | 82 | 1009.3 |
| 20260507015725 | 58 | 304 | 7.0 | 13.0 | 0.00 | 0.51 | 0.51 | 82 | 1009.3 |
| 20260507015509 | 58 | 300 | 6.1 | 12.2 | 0.00 | 0.51 | 0.51 | 83 | 1009.3 |
| 20260507015444 | 58 | 325 | 5.2 | 12.2 | 0.00 | 0.51 | 0.51 | 83 | 1009.3 |
| 20260507015434 | 58 | 288 | 6.1 | 12.2 | 0.00 | 0.51 | 0.51 | 82 | 1009.3 |
| 20260507015313 | 58 | 303 | 5.2 | 12.2 | 0.00 | 0.51 | 0.51 | 83 | 1009.4 |
| 20260507015057 | 58 | 290 | 5.2 | 12.2 | 0.00 | 0.51 | 0.51 | 83 | 1009.4 |
| 20260507014958 | 58 | 279 | 4.3 | 8.7 | 0.00 | 0.51 | 0.51 | 83 | 1009.4 |
| 20260507014952 | 58 | 277 | 4.3 | 12.2 | 0.00 | 0.51 | 0.51 | 83 | 1009.4 |
| 20260507014944 | 58 | 280 | 4.3 | 8.7 | 0.00 | 0.51 | 0.51 | 83 | 1009.4 |
| 20260507014932 | 58 | 355 | 4.3 | 12.2 | 0.00 | 0.51 | 0.51 | 84 | 1009.4 |
| 20260507014812 | 58 | 321 | 4.3 | 12.2 | 0.00 | 0.51 | 0.51 | 84 | 1009.5 |
| 20260507014439 | 58 | 311 | 4.3 | 8.7 | 0.00 | 0.51 | 0.51 | 83 | 1009.3 |
| 20260507014332 | 58 | 310 | 5.2 | 9.6 | 0.00 | 0.51 | 0.51 | 83 | 1009.2 |
| 20260507014233 | 58 | 311 | 5.2 | 9.6 | 0.00 | 0.51 | 0.51 | 83 | 1009.2 |
| 20260507014127 | 58 | 309 | 5.2 | 9.6 | 0.00 | 0.51 | 0.51 | 83 | 1009.3 |
| 20260507014027 | 58 | 317 | 5.2 | 9.6 | 0.00 | 0.51 | 0.51 | 83 | 1009.4 |
| 20260507013922 | 58 | 324 | 5.2 | 9.6 | 0.00 | 0.51 | 0.51 | 83 | 1009.4 |
| 20260507013838 | 58 | 308 | 5.2 | 11.3 | 0.00 | 0.51 | 0.51 | 83 | 1009.5 |
| 20260507013831 | 58 | 338 | 5.2 | 11.3 | 0.00 | 0.51 | 0.51 | 83 | 1009.5 |
| 20260507013614 | 58 | 277 | 5.2 | 11.3 | 0.00 | 0.51 | 0.51 | 83 | 1009.6 |
| 20260507013532 | 58 | 296 | 4.3 | 11.3 | 0.00 | 0.51 | 0.51 | 84 | 1009.6 |
| 20260507013525 | 58 | 323 | 5.2 | 11.3 | 0.00 | 0.51 | 0.51 | 83 | 1009.6 |
| 20260507013304 | 58 | 261 | 4.3 | 11.3 | 0.00 | 0.51 | 0.51 | 83 | 1009.6 |
| 20260507013219 | 58 | 298 | 4.3 | 11.3 | 0.00 | 0.51 | 0.51 | 84 | 1009.5 |
| 20260507013213 | 58 | 307 | 4.3 | 11.3 | 0.00 | 0.51 | 0.51 | 84 | 1009.5 |
| 20260507012957 | 59 | 292 | 4.3 | 11.3 | 0.00 | 0.51 | 0.51 | 84 | 1009.5 |
| 20260507012930 | 58 | 259 | 5.2 | 11.3 | 0.00 | 0.51 | 0.51 | 84 | 1009.4 |
| 20260507012926 | 59 | 255 | 5.2 | 11.3 | 0.00 | 0.51 | 0.51 | 84 | 1009.4 |
| 20260507012916 | 59 | 302 | 5.2 | 11.3 | 0.00 | 0.51 | 0.51 | 84 | 1009.5 |
| 20260507012545 | 59 | 306 | 5.2 | 11.3 | 0.00 | 0.51 | 0.51 | 84 | 1009.4 |
| 20260507012440 | 59 | 280 | 5.2 | 11.3 | 0.00 | 0.51 | 0.51 | 84 | 1009.4 |
| 20260507012340 | 59 | 284 | 5.2 | 11.3 | 0.00 | 0.51 | 0.51 | 84 | 1009.4 |
| 20260507012233 | 58 | 284 | 5.2 | 11.3 | 0.00 | 0.51 | 0.51 | 84 | 1009.4 |
| 20260507012134 | 58 | 0 | 5.2 | 11.3 | 0.00 | 0.51 | 0.51 | 84 | 1009.5 |
| 20260507012028 | 58 | 288 | 4.3 | 11.3 | 0.00 | 0.51 | 0.51 | 84 | 1009.5 |
| 20260507011927 | 58 | 279 | 4.3 | 11.3 | 0.00 | 0.51 | 0.51 | 84 | 1009.4 |
| 20260507011822 | 58 | 278 | 4.3 | 11.3 | 0.00 | 0.51 | 0.51 | 85 | 1009.4 |
| 20260507011721 | 58 | 298 | 4.3 | 9.6 | 0.00 | 0.51 | 0.51 | 85 | 1009.4 |
| 20260507011615 | 58 | 251 | 4.3 | 9.6 | 0.00 | 0.51 | 0.51 | 84 | 1009.3 |
| 20260507011516 | 58 | 300 | 4.3 | 9.6 | 0.00 | 0.51 | 0.51 | 85 | 1009.3 |
| 20260507011432 | 59 | 279 | 4.3 | 9.6 | 0.00 | 0.51 | 0.51 | 85 | 1009.3 |
| 20260507011424 | 59 | 274 | 4.3 | 9.6 | 0.00 | 0.51 | 0.51 | 85 | 1009.3 |
| 20260507011234 | 59 | 268 | 4.3 | 9.6 | 0.00 | 0.51 | 0.51 | 85 | 1009.3 |
| 20260507011103 | 59 | 260 | 4.3 | 9.6 | 0.00 | 0.51 | 0.51 | 85 | 1009.3 |
| 20260507011026 | 59 | 261 | 4.3 | 13.9 | 0.00 | 0.51 | 0.51 | 85 | 1009.1 |
| 20260507011000 | 58 | 280 | 4.3 | 13.9 | 0.00 | 0.51 | 0.51 | 85 | 1009.3 |
| 20260507010948 | 59 | 273 | 4.3 | 13.9 | 0.00 | 0.51 | 0.51 | 85 | 1009.3 |
| 20260507010936 | 59 | 287 | 4.3 | 13.9 | 0.00 | 0.51 | 0.51 | 85 | 1009.3 |
| 20260507010701 | 59 | 269 | 4.3 | 13.9 | 0.00 | 0.51 | 0.51 | 85 | 1009.2 |
| 20260507010502 | 59 | 296 | 5.2 | 13.9 | 0.00 | 0.51 | 0.51 | 85 | 1008.9 |
| 20260507010454 | 59 | 293 | 5.2 | 13.9 | 0.00 | 0.51 | 0.51 | 85 | 1009.0 |
| 20260507010240 | 59 | 308 | 5.2 | 13.9 | 0.00 | 0.51 | 0.51 | 85 | 1008.9 |
| 20260507010133 | 59 | 312 | 6.1 | 13.9 | 0.00 | 0.51 | 0.51 | 85 | 1008.9 |
| 20260507010033 | 59 | 282 | 6.1 | 11.3 | 0.00 | 0.51 | 0.51 | 85 | 1009.0 |
| 20260507005929 | 59 | 284 | 6.1 | 13.9 | 0.00 | 0.51 | 0.51 | 85 | 1009.2 |
| 20260507005827 | 59 | 318 | 6.1 | 13.9 | 0.00 | 0.51 | 0.51 | 85 | 1009.2 |
| 20260507005722 | 59 | 277 | 6.1 | 13.9 | 0.00 | 0.51 | 0.51 | 85 | 1009.1 |
| 20260507005621 | 59 | 287 | 6.1 | 13.9 | 0.00 | 0.51 | 0.51 | 85 | 1009.1 |
| 20260507005515 | 59 | 259 | 6.1 | 13.9 | 0.00 | 0.51 | 0.51 | 85 | 1009.2 |
| 20260507005415 | 59 | 265 | 6.1 | 13.9 | 0.00 | 0.51 | 0.51 | 85 | 1009.2 |
| 20260507005310 | 59 | 256 | 6.1 | 13.9 | 0.00 | 0.51 | 0.51 | 85 | 1009.1 |
| 20260507005208 | 59 | 278 | 6.1 | 13.9 | 0.00 | 0.51 | 0.51 | 86 | 1009.0 |
| 20260507005103 | 59 | 277 | 5.2 | 13.9 | 0.00 | 0.51 | 0.51 | 86 | 1009.0 |
| 20260507005003 | 59 | 238 | 5.2 | 9.6 | 0.00 | 0.51 | 0.51 | 86 | 1008.9 |
| 20260507004857 | 59 | 308 | 5.2 | 8.7 | 0.00 | 0.51 | 0.51 | 86 | 1008.9 |
| 20260507004757 | 59 | 269 | 5.2 | 8.7 | 0.00 | 0.51 | 0.51 | 86 | 1008.8 |
| 20260507004714 | 59 | 277 | 5.2 | 8.7 | 0.00 | 0.51 | 0.51 | 86 | 1008.8 |
| 20260507004706 | 59 | 252 | 5.2 | 8.7 | 0.00 | 0.51 | 0.51 | 86 | 1008.8 |
| 20260507004446 | 59 | 274 | 5.2 | 8.7 | 0.00 | 0.51 | 0.51 | 86 | 1008.9 |
| 20260507004345 | 59 | 261 | 5.2 | 8.7 | 0.00 | 0.51 | 0.51 | 86 | 1008.9 |
| 20260507004322 | 59 | 264 | 4.3 | 8.7 | 0.00 | 0.51 | 0.51 | 86 | 1008.8 |
| 20260507004317 | 59 | 296 | 4.3 | 7.8 | 0.00 | 0.51 | 0.51 | 86 | 1008.9 |
| 20260507004312 | 59 | 296 | 4.3 | 8.7 | 0.00 | 0.51 | 0.51 | 86 | 1008.9 |
| 20260507004303 | 59 | 274 | 5.2 | 8.7 | 0.00 | 0.51 | 0.51 | 86 | 1008.9 |
| 20260507004144 | 59 | 273 | 5.2 | 8.7 | 0.00 | 0.51 | 0.51 | 86 | 1008.8 |
| 20260507004128 | 59 | 254 | 4.3 | 8.7 | 0.00 | 0.51 | 0.51 | 86 | 1008.8 |
| 20260507003737 | 59 | 253 | 4.3 | 7.8 | 0.00 | 0.51 | 0.51 | 86 | 1008.9 |
| 20260507003521 | 59 | 256 | 4.3 | 7.8 | 0.00 | 0.51 | 0.51 | 86 | 1008.9 |
| 20260507003438 | 59 | 254 | 4.3 | 7.0 | 0.00 | 0.51 | 0.51 | 86 | 1008.8 |
| 20260507003430 | 59 | 264 | 4.3 | 7.0 | 0.00 | 0.51 | 0.51 | 86 | 1008.8 |
| 20260507003208 | 59 | 271 | 4.3 | 7.0 | 0.00 | 0.51 | 0.51 | 87 | 1008.7 |
| 20260507003110 | 59 | 263 | 4.3 | 7.0 | 0.00 | 0.51 | 0.51 | 87 | 1008.8 |
| 20260507003003 | 59 | 261 | 5.2 | 9.6 | 0.00 | 0.51 | 0.51 | 87 | 1008.7 |
| 20260507002903 | 59 | 265 | 5.2 | 9.6 | 0.00 | 0.51 | 0.51 | 87 | 1008.6 |
| 20260507002757 | 59 | 304 | 5.2 | 9.6 | 0.00 | 0.51 | 0.51 | 87 | 1008.6 |
| 20260507002657 | 59 | 290 | 4.3 | 9.6 | 0.00 | 0.51 | 0.51 | 87 | 1008.5 |
| 20260507002551 | 59 | 261 | 4.3 | 9.6 | 0.00 | 0.51 | 0.51 | 87 | 1008.5 |
| 20260507002450 | 59 | 276 | 4.3 | 9.6 | 0.00 | 0.51 | 0.51 | 87 | 1008.5 |
| 20260507002347 | 59 | 281 | 4.3 | 9.6 | 0.00 | 0.51 | 0.51 | 87 | 1008.4 |
| 20260507002245 | 59 | 273 | 4.3 | 9.6 | 0.00 | 0.51 | 0.51 | 87 | 1008.4 |
| 20260507002201 | 59 | 308 | 4.3 | 12.2 | 0.00 | 0.51 | 0.51 | 86 | 1008.3 |
| 20260507002154 | 59 | 329 | 4.3 | 9.6 | 0.00 | 0.51 | 0.51 | 86 | 1008.4 |
| 20260507001932 | 59 | 287 | 5.2 | 12.2 | 0.00 | 0.51 | 0.51 | 86 | 1008.3 |
| 20260507001832 | 59 | 301 | 5.2 | 12.2 | 0.00 | 0.51 | 0.51 | 86 | 1008.3 |
| 20260507001727 | 59 | 319 | 5.2 | 12.2 | 0.00 | 0.51 | 0.51 | 86 | 1008.3 |
| 20260507001644 | 59 | 302 | 5.2 | 12.2 | 0.00 | 0.51 | 0.51 | 86 | 1008.3 |
| 20260507001636 | 59 | 321 | 6.1 | 12.2 | 0.00 | 0.51 | 0.51 | 86 | 1008.3 |
| 20260507001422 | 59 | 298 | 5.2 | 12.2 | 0.00 | 0.51 | 0.51 | 86 | 1008.3 |
| 20260507001315 | 59 | 298 | 6.1 | 12.2 | 0.00 | 0.51 | 0.51 | 86 | 1008.3 |
| 20260507001234 | 59 | 286 | 7.0 | 12.2 | 0.00 | 0.51 | 0.51 | 86 | 1008.3 |
| 20260507001225 | 59 | 317 | 6.1 | 12.2 | 0.00 | 0.51 | 0.51 | 86 | 1008.3 |
| 20260507001027 | 59 | 279 | 6.1 | 12.2 | 0.00 | 0.51 | 0.51 | 86 | 1008.1 |
| 20260507001019 | 59 | 290 | 7.0 | 12.2 | 0.00 | 0.51 | 0.51 | 86 | 1008.2 |
| 20260507000803 | 59 | 284 | 6.1 | 12.2 | 0.00 | 0.51 | 0.51 | 86 | 1008.1 |
| 20260507000658 | 60 | 277 | 6.1 | 12.2 | 0.00 | 0.51 | 0.51 | 86 | 1008.1 |
| 20260507000636 | 60 | 321 | 6.1 | 12.2 | 0.00 | 0.51 | 0.51 | 86 | 1007.9 |
| 20260507000626 | 60 | 311 | 6.1 | 12.2 | 0.00 | 0.51 | 0.51 | 86 | 1008.0 |
| 20260507000506 | 60 | 313 | 6.1 | 12.2 | 0.00 | 0.51 | 0.51 | 86 | 1008.0 |
| 20260507000246 | 60 | 307 | 6.1 | 12.2 | 0.00 | 0.51 | 0.51 | 86 | 1007.8 |
| 20260507000145 | 60 | 291 | 6.1 | 12.2 | 0.00 | 0.51 | 0.51 | 87 | 1007.8 |
| 20260507000040 | 60 | 329 | 6.1 | 11.3 | 0.00 | 0.51 | 0.51 | 87 | 1007.9 |
| 20260506235939 | 60 | 275 | 6.1 | 11.3 | 0.00 | 0.51 | 0.51 | 87 | 1007.9 |
| 20260506235834 | 60 | 269 | 6.1 | 11.3 | 0.00 | 0.51 | 0.51 | 87 | 1007.8 |
| 20260506235733 | 60 | 304 | 6.1 | 11.3 | 0.00 | 0.51 | 0.51 | 87 | 1007.8 |
| 20260506235627 | 60 | 303 | 6.1 | 11.3 | 0.00 | 0.51 | 0.51 | 87 | 1007.8 |
| 20260506235527 | 60 | 303 | 6.1 | 11.3 | 0.00 | 0.51 | 0.51 | 87 | 1007.8 |
| 20260506235421 | 60 | 275 | 6.1 | 11.3 | 0.00 | 0.51 | 0.51 | 87 | 1007.8 |
| 20260506235320 | 60 | 284 | 6.1 | 11.3 | 0.00 | 0.51 | 0.51 | 87 | 1007.7 |
| 20260506235215 | 60 | 298 | 6.1 | 11.3 | 0.00 | 0.51 | 0.51 | 87 | 1007.8 |
| 20260506235114 | 60 | 271 | 6.1 | 10.4 | 0.00 | 0.51 | 0.51 | 87 | 1007.7 |
| 20260506235009 | 60 | 301 | 6.1 | 10.4 | 0.00 | 0.51 | 0.51 | 87 | 1007.7 |
| 20260506234909 | 60 | 286 | 6.1 | 10.4 | 0.00 | 0.51 | 0.51 | 87 | 1007.7 |
| 20260506234803 | 60 | 294 | 6.1 | 10.4 | 0.00 | 0.51 | 0.51 | 87 | 1007.6 |
| 20260506234720 | 60 | 280 | 6.1 | 10.4 | 0.00 | 0.51 | 0.51 | 87 | 1007.5 |
| 20260506234713 | 60 | 304 | 6.1 | 10.4 | 0.00 | 0.51 | 0.51 | 87 | 1007.5 |
| 20260506234457 | 60 | 280 | 5.2 | 10.4 | 0.00 | 0.51 | 0.51 | 87 | 1007.4 |
| 20260506234351 | 60 | 332 | 5.2 | 10.4 | 0.00 | 0.51 | 0.51 | 87 | 1007.4 |
| 20260506234307 | 60 | 312 | 6.1 | 10.4 | 0.00 | 0.51 | 0.51 | 87 | 1007.4 |
| 20260506234301 | 60 | 309 | 6.1 | 10.4 | 0.00 | 0.51 | 0.51 | 87 | 1007.4 |
| 20260506234045 | 60 | 278 | 6.1 | 10.4 | 0.00 | 0.51 | 0.51 | 87 | 1007.4 |
| 20260506233939 | 60 | 308 | 5.2 | 9.6 | 0.00 | 0.51 | 0.51 | 87 | 1007.3 |
| 20260506233839 | 60 | 318 | 5.2 | 9.6 | 0.00 | 0.51 | 0.51 | 87 | 1007.3 |
| 20260506233733 | 60 | 301 | 5.2 | 9.6 | 0.00 | 0.51 | 0.51 | 87 | 1007.3 |
| 20260506233633 | 60 | 275 | 5.2 | 9.6 | 0.00 | 0.51 | 0.51 | 87 | 1007.3 |
| 20260506233528 | 60 | 290 | 5.2 | 9.6 | 0.00 | 0.51 | 0.51 | 87 | 1007.3 |
| 20260506233427 | 60 | 300 | 4.3 | 9.6 | 0.00 | 0.51 | 0.51 | 87 | 1007.2 |
| 20260506233404 | 61 | 294 | 4.3 | 9.6 | 0.00 | 0.51 | 0.51 | 87 | 1007.1 |
| 20260506233354 | 61 | 299 | 4.3 | 9.6 | 0.00 | 0.51 | 0.51 | 87 | 1007.2 |
| 20260506233236 | 61 | 262 | 4.3 | 7.8 | 0.00 | 0.51 | 0.51 | 87 | 1007.1 |
| 20260506233230 | 61 | 275 | 4.3 | 9.6 | 0.00 | 0.51 | 0.51 | 87 | 1007.1 |
| 20260506233214 | 61 | 312 | 4.3 | 9.6 | 0.00 | 0.51 | 0.51 | 87 | 1007.1 |
| 20260506232939 | 61 | 301 | 4.3 | 7.8 | 0.00 | 0.51 | 0.51 | 87 | 1007.1 |
| 20260506232819 | 61 | 304 | 4.3 | 9.6 | 0.00 | 0.51 | 0.51 | 87 | 1007.1 |
| 20260506232604 | 61 | 284 | 4.3 | 9.6 | 0.00 | 0.51 | 0.51 | 87 | 1007.1 |
| 20260506232456 | 61 | 317 | 4.3 | 9.6 | 0.00 | 0.51 | 0.51 | 87 | 1007.2 |
| 20260506232357 | 61 | 294 | 4.3 | 9.6 | 0.00 | 0.51 | 0.51 | 87 | 1007.2 |
| 20260506232251 | 61 | 295 | 5.2 | 9.6 | 0.00 | 0.51 | 0.51 | 87 | 1007.2 |
| 20260506232151 | 61 | 313 | 5.2 | 9.6 | 0.01 | 0.51 | 0.51 | 87 | 1007.2 |
| 20260506232045 | 61 | 307 | 5.2 | 9.6 | 0.01 | 0.51 | 0.51 | 87 | 1007.1 |
| 20260506231945 | 61 | 285 | 5.2 | 9.6 | 0.01 | 0.51 | 0.51 | 87 | 1007.1 |
| 20260506231839 | 61 | 298 | 4.3 | 9.6 | 0.05 | 0.51 | 0.51 | 87 | 1007.2 |
| 20260506231739 | 61 | 304 | 5.2 | 9.6 | 0.06 | 0.51 | 0.51 | 87 | 1007.2 |
| 20260506231634 | 62 | 300 | 5.2 | 10.4 | 0.06 | 0.51 | 0.51 | 87 | 1007.2 |
| 20260506231554 | 62 | 302 | 5.2 | 10.4 | 0.11 | 0.51 | 0.51 | 87 | 1007.1 |
| 20260506231548 | 62 | 302 | 5.2 | 10.4 | 0.09 | 0.51 | 0.51 | 87 | 1007.1 |
| 20260506231541 | 62 | 344 | 5.2 | 10.4 | 0.07 | 0.51 | 0.51 | 87 | 1007.2 |
| 20260506231525 | 62 | 299 | 5.2 | 10.4 | 0.09 | 0.51 | 0.51 | 87 | 1007.2 |
| 20260506231250 | 62 | 320 | 5.2 | 10.4 | 0.11 | 0.51 | 0.51 | 87 | 1007.1 |
| 20260506231130 | 62 | 298 | 5.2 | 10.4 | 0.11 | 0.51 | 0.51 | 87 | 1007.1 |
| 20260506230932 | 62 | 296 | 6.1 | 10.4 | 0.11 | 0.51 | 0.51 | 86 | 1007.0 |
| 20260506230924 | 62 | 306 | 6.1 | 10.4 | 0.11 | 0.51 | 0.51 | 87 | 1007.1 |
| 20260506230708 | 62 | 302 | 6.1 | 10.4 | 0.11 | 0.51 | 0.51 | 86 | 1007.0 |
| 20260506230603 | 62 | 315 | 6.1 | 11.3 | 0.11 | 0.51 | 0.51 | 86 | 1007.0 |
| 20260506230521 | 62 | 318 | 6.1 | 11.3 | 0.11 | 0.51 | 0.51 | 86 | 1007.0 |
| 20260506230513 | 62 | 329 | 6.1 | 11.3 | 0.11 | 0.51 | 0.51 | 86 | 1007.0 |
| 20260506230257 | 62 | 330 | 6.1 | 11.3 | 0.11 | 0.51 | 0.51 | 86 | 1007.0 |
| 20260506230214 | 63 | 296 | 6.1 | 11.3 | 0.11 | 0.51 | 0.51 | 86 | 1007.1 |
| 20260506230206 | 62 | 314 | 6.1 | 11.3 | 0.11 | 0.51 | 0.51 | 86 | 1007.1 |
| 20260506230008 | 63 | 300 | 5.2 | 11.3 | 0.11 | 0.51 | 0.51 | 85 | 1007.1 |
| 20260506230000 | 63 | 297 | 6.1 | 11.3 | 0.11 | 0.51 | 0.51 | 86 | 1007.1 |
| 20260506225801 | 63 | 276 | 5.2 | 9.6 | 0.11 | 0.51 | 0.51 | 84 | 1007.1 |
| 20260506225754 | 63 | 299 | 5.2 | 11.3 | 0.11 | 0.51 | 0.51 | 84 | 1007.1 |
| 20260506225533 | 63 | 288 | 5.2 | 9.6 | 0.11 | 0.51 | 0.51 | 84 | 1007.0 |
| 20260506225433 | 63 | 323 | 5.2 | 9.6 | 0.11 | 0.51 | 0.51 | 84 | 1007.0 |
| 20260506225328 | 63 | 317 | 5.2 | 9.6 | 0.11 | 0.51 | 0.51 | 84 | 1007.0 |
| 20260506225227 | 64 | 300 | 5.2 | 9.6 | 0.11 | 0.51 | 0.51 | 84 | 1006.9 |
| 20260506225121 | 64 | 309 | 5.2 | 9.6 | 0.11 | 0.51 | 0.51 | 84 | 1006.9 |
| 20260506225021 | 64 | 339 | 5.2 | 9.6 | 0.11 | 0.51 | 0.51 | 84 | 1006.8 |
| 20260506224915 | 64 | 324 | 4.3 | 9.6 | 0.11 | 0.51 | 0.51 | 84 | 1006.9 |
| 20260506224815 | 64 | 297 | 4.3 | 9.6 | 0.11 | 0.51 | 0.51 | 84 | 1006.9 |
| 20260506224709 | 64 | 297 | 4.3 | 9.6 | 0.11 | 0.51 | 0.51 | 84 | 1007.0 |
| 20260506224608 | 64 | 323 | 3.5 | 9.6 | 0.11 | 0.51 | 0.51 | 84 | 1007.0 |
| 20260506224503 | 64 | 0 | 2.6 | 7.8 | 0.11 | 0.51 | 0.51 | 84 | 1006.9 |
| 20260506224403 | 64 | 323 | 2.6 | 7.8 | 0.11 | 0.51 | 0.51 | 84 | 1007.0 |
| 20260506224257 | 64 | 283 | 2.6 | 7.8 | 0.11 | 0.51 | 0.51 | 84 | 1006.9 |
| 20260506224157 | 64 | 266 | 1.7 | 3.5 | 0.11 | 0.51 | 0.51 | 84 | 1006.9 |
| 20260506224052 | 64 | 266 | 1.7 | 3.5 | 0.11 | 0.51 | 0.51 | 85 | 1006.9 |
| 20260506223951 | 64 | 266 | 1.7 | 3.5 | 0.11 | 0.51 | 0.51 | 85 | 1006.8 |
| 20260506223845 | 64 | 266 | 1.7 | 3.5 | 0.11 | 0.51 | 0.51 | 85 | 1006.8 |
| 20260506223803 | 64 | 266 | 1.7 | 8.7 | 0.11 | 0.51 | 0.51 | 85 | 1006.8 |
| 20260506223755 | 64 | 266 | 1.7 | 8.7 | 0.11 | 0.51 | 0.51 | 85 | 1006.7 |
| 20260506223540 | 64 | 266 | 2.6 | 8.7 | 0.11 | 0.51 | 0.51 | 85 | 1006.8 |
| 20260506223434 | 64 | 266 | 2.6 | 8.7 | 0.11 | 0.51 | 0.51 | 86 | 1006.8 |
| 20260506223333 | 64 | 266 | 2.6 | 8.7 | 0.11 | 0.51 | 0.51 | 86 | 1006.8 |
| 20260506223226 | 64 | 266 | 2.6 | 8.7 | 0.11 | 0.51 | 0.51 | 86 | 1006.8 |
| 20260506223127 | 64 | 266 | 3.5 | 8.7 | 0.11 | 0.51 | 0.51 | 86 | 1006.7 |
| 20260506223021 | 64 | 266 | 3.5 | 8.7 | 0.11 | 0.51 | 0.51 | 86 | 1006.7 |
| 20260506222921 | 64 | 265 | 3.5 | 8.7 | 0.11 | 0.51 | 0.51 | 86 | 1006.7 |
| 20260506222814 | 64 | 265 | 4.3 | 8.7 | 0.11 | 0.51 | 0.51 | 86 | 1006.7 |
| 20260506222715 | 64 | 265 | 4.3 | 8.7 | 0.11 | 0.51 | 0.51 | 86 | 1006.7 |
| 20260506222610 | 64 | 265 | 4.3 | 8.7 | 0.11 | 0.51 | 0.51 | 86 | 1006.7 |
| 20260506222552 | 65 | 284 | 5.2 | 8.7 | 0.11 | 0.51 | 0.51 | 86 | 1006.4 |
| 20260506222546 | 65 | 292 | 4.3 | 8.7 | 0.06 | 0.46 | 0.49 | 86 | 1006.6 |
| 20260506222537 | 64 | 266 | 4.3 | 8.7 | 0.11 | 0.51 | 0.51 | 86 | 1006.6 |
| 20260506222419 | 65 | 259 | 5.2 | 8.7 | 0.10 | 0.50 | 0.50 | 87 | 1006.6 |
| 20260506222412 | 64 | 270 | 5.2 | 8.7 | 0.11 | 0.51 | 0.51 | 86 | 1006.6 |
| 20260506222357 | 64 | 278 | 5.2 | 8.7 | 0.11 | 0.51 | 0.51 | 86 | 1006.4 |
| 20260506222007 | 65 | 284 | 5.2 | 8.7 | 0.10 | 0.50 | 0.50 | 87 | 1006.6 |
| 20260506221826 | 65 | 321 | 4.3 | 7.8 | 0.04 | 0.44 | 0.44 | 86 | 1006.8 |
| 20260506221815 | 65 | 275 | 4.3 | 7.8 | 0.05 | 0.45 | 0.46 | 86 | 1006.6 |
| 20260506221655 | 65 | 0 | 4.3 | 7.8 | 0.05 | 0.45 | 0.45 | 86 | 1006.6 |
| 20260506221440 | 65 | 323 | 3.5 | 7.8 | 0.02 | 0.42 | 0.43 | 86 | 1006.7 |
| 20260506221333 | 65 | 303 | 3.5 | 7.8 | 0.02 | 0.42 | 0.42 | 86 | 1006.7 |
| 20260506221233 | 65 | 282 | 3.5 | 7.8 | 0.00 | 0.40 | 0.40 | 86 | 1006.6 |
| 20260506221127 | 65 | 264 | 2.6 | 7.8 | 0.00 | 0.40 | 0.40 | 86 | 1006.6 |
| 20260506221027 | 66 | 213 | 2.6 | 7.8 | 0.00 | 0.40 | 0.40 | 86 | 1006.4 |
| 20260506220921 | 66 | 190 | 2.6 | 7.8 | 0.00 | 0.40 | 0.40 | 86 | 1006.3 |
| 20260506220858 | 66 | 173 | 3.5 | 10.4 | 0.00 | 0.40 | 0.40 | 86 | 1006.2 |
| 20260506220854 | 66 | 167 | 3.5 | 10.4 | 0.00 | 0.40 | 0.40 | 86 | 1006.2 |
| 20260506220845 | 66 | 203 | 3.5 | 10.4 | 0.00 | 0.40 | 0.40 | 86 | 1006.2 |
| 20260506220532 | 66 | 199 | 3.5 | 10.4 | 0.00 | 0.40 | 0.40 | 86 | 1006.2 |
| 20260506220523 | 66 | 199 | 3.5 | 10.4 | 0.00 | 0.40 | 0.40 | 86 | 1006.2 |
| 20260506220302 | 66 | 196 | 3.5 | 10.4 | 0.00 | 0.40 | 0.40 | 86 | 1006.2 |
| 20260506220203 | 66 | 170 | 3.5 | 10.4 | 0.00 | 0.40 | 0.40 | 85 | 1006.1 |
| 20260506220057 | 66 | 175 | 3.5 | 10.4 | 0.00 | 0.40 | 0.40 | 85 | 1006.1 |
| 20260506215958 | 66 | 169 | 3.5 | 10.4 | 0.00 | 0.40 | 0.40 | 85 | 1006.1 |
| 20260506215913 | 66 | 177 | 3.5 | 10.4 | 0.00 | 0.40 | 0.40 | 85 | 1006.2 |
| 20260506215906 | 66 | 198 | 3.5 | 10.4 | 0.00 | 0.40 | 0.40 | 85 | 1006.2 |
| 20260506215645 | 66 | 203 | 3.5 | 10.4 | 0.00 | 0.40 | 0.40 | 85 | 1006.1 |
| 20260506215545 | 66 | 204 | 3.5 | 10.4 | 0.00 | 0.40 | 0.40 | 85 | 1006.1 |
| 20260506215439 | 66 | 204 | 4.3 | 10.4 | 0.00 | 0.40 | 0.40 | 85 | 1006.1 |
| 20260506215339 | 67 | 204 | 4.3 | 10.4 | 0.00 | 0.40 | 0.40 | 85 | 1006.1 |
| 20260506215233 | 67 | 217 | 4.3 | 10.4 | 0.00 | 0.40 | 0.40 | 85 | 1006.1 |
| 20260506215134 | 67 | 190 | 4.3 | 10.4 | 0.00 | 0.40 | 0.40 | 85 | 1006.0 |
| 20260506215027 | 67 | 189 | 4.3 | 10.4 | 0.00 | 0.40 | 0.40 | 84 | 1006.1 |
| 20260506214927 | 67 | 220 | 4.3 | 10.4 | 0.00 | 0.40 | 0.40 | 84 | 1006.0 |
| 20260506214821 | 67 | 160 | 4.3 | 10.4 | 0.00 | 0.40 | 0.40 | 84 | 1006.0 |
| 20260506214721 | 67 | 200 | 4.3 | 10.4 | 0.00 | 0.40 | 0.40 | 84 | 1006.1 |
| 20260506214616 | 67 | 198 | 4.3 | 10.4 | 0.00 | 0.40 | 0.40 | 84 | 1006.1 |
| 20260506214515 | 67 | 234 | 4.3 | 10.4 | 0.00 | 0.40 | 0.40 | 84 | 1006.0 |
| 20260506214409 | 67 | 184 | 4.3 | 10.4 | 0.00 | 0.40 | 0.40 | 84 | 1006.0 |
| 20260506214309 | 67 | 204 | 4.3 | 10.4 | 0.00 | 0.40 | 0.40 | 84 | 1005.9 |
| 20260506214203 | 67 | 215 | 4.3 | 10.4 | 0.00 | 0.40 | 0.40 | 84 | 1005.9 |
| 20260506214103 | 67 | 154 | 4.3 | 10.4 | 0.00 | 0.40 | 0.40 | 84 | 1006.0 |
| 20260506213957 | 67 | 167 | 3.5 | 10.4 | 0.00 | 0.40 | 0.40 | 84 | 1005.9 |
| 20260506213857 | 67 | 161 | 3.5 | 8.7 | 0.00 | 0.40 | 0.40 | 84 | 1005.9 |
| 20260506213751 | 68 | 181 | 3.5 | 8.7 | 0.00 | 0.40 | 0.40 | 84 | 1005.9 |
| 20260506213651 | 68 | 184 | 3.5 | 8.7 | 0.00 | 0.40 | 0.40 | 84 | 1005.9 |
| 20260506213546 | 68 | 210 | 3.5 | 8.7 | 0.00 | 0.40 | 0.40 | 84 | 1005.8 |
| 20260506213445 | 68 | 162 | 3.5 | 7.0 | 0.00 | 0.40 | 0.40 | 84 | 1005.8 |
| 20260506213422 | 68 | 203 | 3.5 | 8.7 | 0.00 | 0.40 | 0.40 | 84 | 1005.8 |
| 20260506213412 | 68 | 198 | 3.5 | 8.7 | 0.00 | 0.40 | 0.40 | 84 | 1005.8 |
| 20260506213252 | 68 | 191 | 3.5 | 8.7 | 0.00 | 0.40 | 0.40 | 84 | 1005.8 |
| 20260506213033 | 68 | 205 | 3.5 | 8.7 | 0.00 | 0.40 | 0.40 | 84 | 1005.8 |
| 20260506213007 | 68 | 195 | 3.5 | 8.7 | 0.00 | 0.40 | 0.40 | 84 | 1005.8 |
| 20260506213002 | 68 | 220 | 2.6 | 8.7 | 0.00 | 0.40 | 0.40 | 84 | 1005.8 |
| 20260506212952 | 68 | 206 | 3.5 | 8.7 | 0.00 | 0.40 | 0.40 | 83 | 1005.7 |
| 20260506212621 | 68 | 210 | 2.6 | 8.7 | 0.00 | 0.40 | 0.40 | 84 | 1005.7 |
| 20260506212514 | 68 | 215 | 2.6 | 8.7 | 0.00 | 0.40 | 0.40 | 84 | 1005.6 |
| 20260506212415 | 68 | 190 | 2.6 | 6.1 | 0.00 | 0.40 | 0.40 | 84 | 1005.7 |
| 20260506212309 | 68 | 189 | 2.6 | 6.1 | 0.00 | 0.40 | 0.40 | 84 | 1005.7 |
| 20260506212209 | 68 | 190 | 2.6 | 6.1 | 0.00 | 0.40 | 0.40 | 84 | 1005.7 |
| 20260506212101 | 68 | 190 | 3.5 | 6.1 | 0.00 | 0.40 | 0.40 | 84 | 1005.7 |
| 20260506212039 | 68 | 232 | 2.6 | 6.1 | 0.00 | 0.40 | 0.40 | 84 | 1005.7 |
| 20260506212035 | 68 | 232 | 2.6 | 8.7 | 0.00 | 0.40 | 0.40 | 84 | 1005.7 |
| 20260506212026 | 68 | 196 | 2.6 | 6.1 | 0.00 | 0.40 | 0.40 | 84 | 1005.7 |
| 20260506211714 | 68 | 233 | 2.6 | 8.7 | 0.00 | 0.40 | 0.40 | 83 | 1005.7 |
| 20260506211707 | 68 | 233 | 2.6 | 8.7 | 0.00 | 0.40 | 0.40 | 83 | 1005.7 |
| 20260506211444 | 68 | 223 | 2.6 | 8.7 | 0.00 | 0.40 | 0.40 | 83 | 1005.7 |
| 20260506211345 | 68 | 233 | 2.6 | 8.7 | 0.00 | 0.40 | 0.40 | 83 | 1005.7 |
| 20260506211239 | 68 | 212 | 2.6 | 8.7 | 0.00 | 0.40 | 0.40 | 83 | 1005.6 |
| 20260506211139 | 68 | 225 | 3.5 | 8.7 | 0.00 | 0.40 | 0.40 | 84 | 1005.6 |
| 20260506211032 | 68 | 184 | 3.5 | 8.7 | 0.00 | 0.40 | 0.40 | 84 | 1005.6 |
| 20260506210933 | 68 | 184 | 4.3 | 8.7 | 0.00 | 0.40 | 0.40 | 84 | 1005.6 |
| 20260506210850 | 68 | 171 | 4.3 | 8.7 | 0.00 | 0.40 | 0.40 | 84 | 1005.7 |
| 20260506210842 | 68 | 184 | 4.3 | 8.7 | 0.00 | 0.40 | 0.40 | 84 | 1005.7 |
| 20260506210621 | 68 | 184 | 4.3 | 8.7 | 0.00 | 0.40 | 0.40 | 83 | 1005.7 |
| 20260506210521 | 68 | 232 | 4.3 | 8.7 | 0.00 | 0.40 | 0.40 | 83 | 1005.7 |
| 20260506210414 | 68 | 236 | 4.3 | 8.7 | 0.00 | 0.40 | 0.40 | 83 | 1005.7 |
| 20260506210315 | 68 | 215 | 4.3 | 8.7 | 0.00 | 0.40 | 0.40 | 83 | 1005.7 |
| 20260506210232 | 68 | 213 | 4.3 | 13.0 | 0.00 | 0.40 | 0.40 | 83 | 1005.7 |
| 20260506210224 | 68 | 225 | 4.3 | 13.0 | 0.00 | 0.40 | 0.40 | 83 | 1005.7 |
| 20260506210003 | 68 | 192 | 4.3 | 13.0 | 0.00 | 0.40 | 0.40 | 83 | 1005.7 |
| 20260506205904 | 68 | 180 | 4.3 | 13.0 | 0.00 | 0.40 | 0.40 | 83 | 1005.7 |
| 20260506205820 | 68 | 243 | 4.3 | 13.0 | 0.00 | 0.40 | 0.40 | 83 | 1005.6 |
| 20260506205813 | 68 | 207 | 4.3 | 13.0 | 0.00 | 0.40 | 0.40 | 84 | 1005.7 |
| 20260506205550 | 68 | 208 | 4.3 | 13.0 | 0.00 | 0.40 | 0.40 | 83 | 1005.6 |
| 20260506205451 | 68 | 186 | 4.3 | 13.0 | 0.00 | 0.40 | 0.40 | 83 | 1005.6 |
| 20260506205406 | 68 | 205 | 5.2 | 13.0 | 0.00 | 0.40 | 0.40 | 83 | 1005.6 |
| 20260506205359 | 68 | 194 | 5.2 | 13.0 | 0.00 | 0.40 | 0.40 | 83 | 1005.6 |
| 20260506205139 | 68 | 217 | 6.1 | 13.0 | 0.00 | 0.40 | 0.40 | 83 | 1005.6 |
| 20260506205039 | 68 | 190 | 6.1 | 13.0 | 0.00 | 0.40 | 0.40 | 82 | 1005.7 |
| 20260506204959 | 68 | 198 | 5.2 | 13.0 | 0.00 | 0.40 | 0.40 | 82 | 1005.7 |
| 20260506204951 | 68 | 222 | 5.2 | 13.0 | 0.00 | 0.40 | 0.40 | 82 | 1005.6 |
| 20260506204829 | 68 | 194 | 5.2 | 13.0 | 0.00 | 0.40 | 0.40 | 82 | 1005.7 |
| 20260506204815 | 68 | 207 | 6.1 | 13.0 | 0.00 | 0.40 | 0.40 | 82 | 1005.7 |
| 20260506204657 | 68 | 192 | 5.2 | 13.0 | 0.00 | 0.40 | 0.40 | 82 | 1005.7 |
| 20260506204536 | 68 | 213 | 5.2 | 13.0 | 0.00 | 0.40 | 0.40 | 82 | 1005.6 |
| 20260506204338 | 69 | 213 | 5.2 | 9.6 | 0.00 | 0.40 | 0.40 | 83 | 1005.7 |
| 20260506204330 | 69 | 225 | 5.2 | 13.0 | 0.00 | 0.40 | 0.40 | 82 | 1005.7 |
| 20260506204109 | 69 | 221 | 5.2 | 9.6 | 0.00 | 0.40 | 0.40 | 83 | 1005.6 |
| 20260506204009 | 69 | 179 | 5.2 | 9.6 | 0.00 | 0.40 | 0.40 | 83 | 1005.6 |
| 20260506203902 | 69 | 238 | 5.2 | 10.4 | 0.00 | 0.40 | 0.40 | 83 | 1005.6 |
| 20260506203803 | 69 | 239 | 5.2 | 10.4 | 0.00 | 0.40 | 0.40 | 83 | 1005.6 |
| 20260506203658 | 69 | 257 | 5.2 | 10.4 | 0.00 | 0.40 | 0.40 | 82 | 1005.6 |
| 20260506203557 | 69 | 218 | 5.2 | 10.4 | 0.00 | 0.40 | 0.40 | 82 | 1005.6 |
| 20260506203452 | 69 | 202 | 6.1 | 10.4 | 0.00 | 0.40 | 0.40 | 82 | 1005.6 |
| 20260506203432 | 69 | 209 | 5.2 | 10.4 | 0.00 | 0.40 | 0.40 | 83 | 1005.6 |
| 20260506203421 | 69 | 240 | 5.2 | 10.4 | 0.00 | 0.40 | 0.40 | 82 | 1005.6 |
| 20260506203301 | 69 | 228 | 5.2 | 10.4 | 0.00 | 0.40 | 0.40 | 82 | 1005.5 |
| 20260506203102 | 69 | 191 | 4.3 | 10.4 | 0.00 | 0.40 | 0.40 | 82 | 1005.6 |
| 20260506203054 | 69 | 173 | 5.2 | 10.4 | 0.00 | 0.40 | 0.40 | 82 | 1005.6 |
| 20260506202833 | 69 | 200 | 4.3 | 9.6 | 0.00 | 0.40 | 0.40 | 82 | 1005.6 |
| 20260506202733 | 69 | 173 | 4.3 | 9.6 | 0.00 | 0.40 | 0.40 | 82 | 1005.6 |
| 20260506202652 | 69 | 208 | 4.3 | 7.8 | 0.00 | 0.40 | 0.40 | 83 | 1005.6 |
| 20260506202644 | 69 | 207 | 4.3 | 9.6 | 0.00 | 0.40 | 0.40 | 83 | 1005.6 |
| 20260506202500 | 69 | 232 | 3.5 | 8.7 | 0.00 | 0.40 | 0.40 | 83 | 1005.5 |
| 20260506202450 | 69 | 216 | 3.5 | 7.8 | 0.00 | 0.40 | 0.40 | 83 | 1005.5 |
| 20260506202330 | 69 | 236 | 3.5 | 7.8 | 0.00 | 0.40 | 0.40 | 83 | 1005.5 |
| 20260506202115 | 69 | 186 | 3.5 | 8.7 | 0.00 | 0.40 | 0.40 | 83 | 1005.5 |
| 20260506202009 | 69 | 172 | 3.5 | 8.7 | 0.00 | 0.40 | 0.40 | 83 | 1005.5 |
| 20260506201910 | 69 | 182 | 3.5 | 8.7 | 0.00 | 0.40 | 0.40 | 83 | 1005.5 |
| 20260506201804 | 69 | 241 | 3.5 | 8.7 | 0.00 | 0.40 | 0.40 | 83 | 1005.5 |
| 20260506201703 | 69 | 188 | 3.5 | 8.7 | 0.00 | 0.40 | 0.40 | 83 | 1005.6 |
| 20260506201557 | 69 | 212 | 2.6 | 8.7 | 0.00 | 0.40 | 0.40 | 84 | 1005.6 |
| 20260506201458 | 69 | 124 | 2.6 | 8.7 | 0.00 | 0.40 | 0.40 | 84 | 1005.5 |
| 20260506201350 | 69 | 217 | 3.5 | 8.7 | 0.00 | 0.40 | 0.40 | 84 | 1005.6 |
| 20260506201251 | 69 | 211 | 3.5 | 8.7 | 0.00 | 0.40 | 0.40 | 84 | 1005.6 |
| 20260506201145 | 69 | 207 | 3.5 | 8.7 | 0.00 | 0.40 | 0.40 | 84 | 1005.6 |
| 20260506201045 | 68 | 242 | 3.5 | 8.7 | 0.00 | 0.40 | 0.40 | 84 | 1005.6 |
| 20260506201003 | 68 | 188 | 3.5 | 8.7 | 0.00 | 0.40 | 0.40 | 84 | 1005.6 |
| 20260506200954 | 68 | 194 | 3.5 | 8.7 | 0.00 | 0.40 | 0.40 | 85 | 1005.5 |
| 20260506200733 | 68 | 181 | 3.5 | 8.7 | 0.00 | 0.40 | 0.40 | 84 | 1005.6 |
| 20260506200633 | 68 | 170 | 4.3 | 8.7 | 0.00 | 0.40 | 0.40 | 84 | 1005.7 |
| 20260506200527 | 68 | 167 | 4.3 | 8.7 | 0.00 | 0.40 | 0.40 | 84 | 1005.6 |
| 20260506200444 | 68 | 147 | 4.3 | 8.7 | 0.00 | 0.40 | 0.40 | 85 | 1005.7 |
| 20260506200437 | 68 | 179 | 4.3 | 8.7 | 0.00 | 0.40 | 0.40 | 85 | 1005.6 |
| 20260506200221 | 68 | 211 | 4.3 | 8.7 | 0.00 | 0.40 | 0.40 | 85 | 1005.6 |
| 20260506200115 | 67 | 226 | 4.3 | 8.7 | 0.00 | 0.40 | 0.40 | 85 | 1005.6 |
| 20260506200015 | 67 | 186 | 4.3 | 8.7 | 0.00 | 0.40 | 0.40 | 85 | 1005.6 |
| 20260506195909 | 67 | 207 | 4.3 | 8.7 | 0.00 | 0.40 | 0.40 | 85 | 1005.6 |
| 20260506195826 | 67 | 218 | 4.3 | 8.7 | 0.00 | 0.40 | 0.40 | 84 | 1005.6 |
| 20260506195819 | 67 | 218 | 4.3 | 8.7 | 0.00 | 0.40 | 0.40 | 85 | 1005.6 |
| 20260506195603 | 67 | 208 | 4.3 | 8.7 | 0.00 | 0.40 | 0.40 | 85 | 1005.6 |
| 20260506195458 | 67 | 229 | 3.5 | 7.8 | 0.00 | 0.40 | 0.40 | 85 | 1005.6 |
| 20260506195415 | 67 | 266 | 3.5 | 7.8 | 0.00 | 0.40 | 0.40 | 86 | 1005.6 |
| 20260506195408 | 67 | 228 | 3.5 | 7.8 | 0.00 | 0.40 | 0.40 | 86 | 1005.7 |
| 20260506195232 | 66 | 200 | 4.3 | 7.8 | 0.00 | 0.40 | 0.40 | 86 | 1005.7 |
| 20260506195221 | 67 | 230 | 3.5 | 7.8 | 0.00 | 0.40 | 0.40 | 86 | 1005.7 |
| 20260506195101 | 67 | 211 | 4.3 | 7.8 | 0.00 | 0.40 | 0.40 | 86 | 1005.7 |
| 20260506195046 | 67 | 228 | 4.3 | 7.8 | 0.00 | 0.40 | 0.40 | 86 | 1005.7 |
| 20260506194927 | 67 | 167 | 3.5 | 7.8 | 0.00 | 0.40 | 0.40 | 86 | 1005.7 |
| 20260506194807 | 67 | 217 | 4.3 | 7.8 | 0.00 | 0.40 | 0.40 | 86 | 1005.7 |
| 20260506194649 | 66 | 238 | 4.3 | 7.8 | 0.00 | 0.40 | 0.40 | 86 | 1005.7 |
| 20260506194427 | 66 | 193 | 4.3 | 9.6 | 0.00 | 0.40 | 0.40 | 86 | 1005.8 |
| 20260506194330 | 66 | 182 | 5.2 | 9.6 | 0.00 | 0.40 | 0.40 | 86 | 1005.8 |
| 20260506194324 | 66 | 201 | 5.2 | 9.6 | 0.00 | 0.40 | 0.40 | 86 | 1005.9 |
| 20260506194309 | 66 | 279 | 5.2 | 9.6 | 0.00 | 0.40 | 0.40 | 86 | 1005.8 |
| 20260506194155 | 66 | 210 | 5.2 | 9.6 | 0.00 | 0.40 | 0.40 | 86 | 1005.9 |
| 20260506194146 | 66 | 222 | 5.2 | 9.6 | 0.00 | 0.40 | 0.40 | 86 | 1005.8 |
| 20260506193809 | 66 | 206 | 5.2 | 10.4 | 0.00 | 0.40 | 0.40 | 86 | 1005.9 |
| 20260506193709 | 66 | 196 | 5.2 | 10.4 | 0.00 | 0.40 | 0.40 | 86 | 1005.9 |
| 20260506193604 | 66 | 202 | 5.2 | 10.4 | 0.00 | 0.40 | 0.40 | 86 | 1005.9 |
| 20260506193502 | 66 | 204 | 5.2 | 10.4 | 0.00 | 0.40 | 0.40 | 86 | 1005.9 |
| 20260506193357 | 65 | 194 | 5.2 | 10.4 | 0.00 | 0.40 | 0.40 | 86 | 1005.9 |
| 20260506193257 | 65 | 205 | 6.1 | 10.4 | 0.00 | 0.40 | 0.40 | 86 | 1005.9 |
| 20260506193151 | 65 | 198 | 6.1 | 10.4 | 0.00 | 0.40 | 0.40 | 86 | 1005.9 |
| 20260506193051 | 65 | 194 | 5.2 | 10.4 | 0.00 | 0.40 | 0.40 | 86 | 1005.9 |
| 20260506192945 | 65 | 219 | 6.1 | 10.4 | 0.00 | 0.40 | 0.40 | 86 | 1005.9 |
| 20260506192845 | 65 | 184 | 5.2 | 10.4 | 0.00 | 0.40 | 0.40 | 86 | 1005.9 |
| 20260506192739 | 65 | 195 | 5.2 | 10.4 | 0.00 | 0.40 | 0.40 | 86 | 1005.9 |
| 20260506192639 | 65 | 207 | 5.2 | 10.4 | 0.00 | 0.40 | 0.40 | 86 | 1005.9 |
| 20260506192533 | 65 | 188 | 5.2 | 10.4 | 0.00 | 0.40 | 0.40 | 86 | 1005.8 |
| 20260506192433 | 65 | 225 | 4.3 | 10.4 | 0.00 | 0.40 | 0.40 | 86 | 1005.9 |
| 20260506192327 | 65 | 221 | 4.3 | 9.6 | 0.00 | 0.40 | 0.40 | 86 | 1005.9 |
| 20260506192227 | 65 | 217 | 4.3 | 9.6 | 0.00 | 0.40 | 0.40 | 86 | 1005.9 |
| 20260506192122 | 65 | 202 | 4.3 | 9.6 | 0.00 | 0.40 | 0.40 | 87 | 1005.9 |
| 20260506192021 | 65 | 221 | 3.5 | 9.6 | 0.00 | 0.40 | 0.40 | 87 | 1005.9 |
| 20260506191936 | 65 | 231 | 3.5 | 9.6 | 0.00 | 0.40 | 0.40 | 87 | 1005.9 |
| 20260506191929 | 65 | 194 | 3.5 | 9.6 | 0.00 | 0.40 | 0.40 | 87 | 1005.9 |
| 20260506191747 | 65 | 207 | 3.5 | 9.6 | 0.00 | 0.40 | 0.40 | 87 | 1005.9 |
| 20260506191737 | 65 | 232 | 3.5 | 9.6 | 0.00 | 0.40 | 0.40 | 87 | 1005.9 |
| 20260506191619 | 65 | 182 | 3.5 | 9.6 | 0.00 | 0.40 | 0.40 | 86 | 1005.9 |
| 20260506191402 | 65 | 218 | 3.5 | 9.6 | 0.00 | 0.40 | 0.40 | 87 | 1005.9 |
| 20260506191257 | 65 | 221 | 2.6 | 9.6 | 0.00 | 0.40 | 0.40 | 87 | 1005.9 |
| 20260506191157 | 65 | 198 | 2.6 | 9.6 | 0.00 | 0.40 | 0.40 | 87 | 1005.9 |
| 20260506191051 | 65 | 198 | 3.5 | 9.6 | 0.00 | 0.40 | 0.40 | 87 | 1005.9 |
| 20260506191007 | 65 | 171 | 3.5 | 9.6 | 0.00 | 0.40 | 0.40 | 87 | 1005.9 |
| 20260506191001 | 65 | 171 | 3.5 | 9.6 | 0.00 | 0.40 | 0.40 | 87 | 1005.9 |
| 20260506190801 | 65 | 174 | 3.5 | 9.6 | 0.00 | 0.40 | 0.40 | 87 | 1005.9 |
| 20260506190754 | 65 | 225 | 3.5 | 9.6 | 0.00 | 0.40 | 0.40 | 87 | 1005.9 |
| 20260506190539 | 65 | 196 | 4.3 | 9.6 | 0.00 | 0.40 | 0.40 | 87 | 1005.9 |
| 20260506190456 | 65 | 211 | 3.5 | 9.6 | 0.00 | 0.40 | 0.40 | 87 | 1006.0 |
| 20260506190449 | 65 | 197 | 4.3 | 9.6 | 0.00 | 0.40 | 0.40 | 87 | 1005.9 |
| 20260506190226 | 65 | 203 | 3.5 | 9.6 | 0.00 | 0.40 | 0.40 | 87 | 1005.9 |
| 20260506190127 | 65 | 209 | 3.5 | 9.6 | 0.00 | 0.40 | 0.40 | 87 | 1005.9 |
| 20260506190021 | 65 | 240 | 3.5 | 9.6 | 0.00 | 0.40 | 0.40 | 87 | 1005.9 |
| 20260506185921 | 65 | 227 | 3.5 | 9.6 | 0.00 | 0.40 | 0.40 | 87 | 1006.0 |
| 20260506185815 | 65 | 211 | 3.5 | 9.6 | 0.00 | 0.40 | 0.40 | 87 | 1005.9 |
| 20260506185715 | 65 | 168 | 2.6 | 9.6 | 0.00 | 0.40 | 0.40 | 87 | 1006.0 |
| 20260506185609 | 65 | 242 | 2.6 | 7.8 | 0.00 | 0.40 | 0.40 | 86 | 1006.0 |
| 20260506185509 | 65 | 213 | 2.6 | 7.8 | 0.00 | 0.40 | 0.40 | 86 | 1006.0 |
| 20260506185404 | 65 | 198 | 2.6 | 6.1 | 0.00 | 0.40 | 0.40 | 86 | 1006.0 |
| 20260506185306 | 65 | 198 | 2.6 | 7.8 | 0.00 | 0.40 | 0.40 | 86 | 1006.0 |
| 20260506185157 | 65 | 182 | 2.6 | 7.8 | 0.00 | 0.40 | 0.40 | 86 | 1006.0 |
| 20260506185057 | 64 | 178 | 2.6 | 7.8 | 0.00 | 0.40 | 0.40 | 86 | 1006.0 |
| 20260506184952 | 64 | 227 | 2.6 | 7.8 | 0.00 | 0.40 | 0.40 | 86 | 1006.0 |
| 20260506184851 | 64 | 189 | 2.6 | 7.8 | 0.00 | 0.40 | 0.40 | 86 | 1006.0 |
| 20260506184746 | 64 | 185 | 2.6 | 7.8 | 0.00 | 0.40 | 0.40 | 86 | 1006.0 |
| 20260506184645 | 64 | 185 | 2.6 | 7.8 | 0.00 | 0.40 | 0.40 | 86 | 1006.1 |
| 20260506184540 | 64 | 181 | 2.6 | 7.8 | 0.00 | 0.40 | 0.40 | 86 | 1006.1 |
| 20260506184454 | 64 | 213 | 3.5 | 7.8 | 0.00 | 0.40 | 0.40 | 86 | 1006.1 |
| 20260506184448 | 64 | 233 | 3.5 | 7.8 | 0.00 | 0.40 | 0.40 | 86 | 1006.1 |
| 20260506184233 | 64 | 212 | 3.5 | 7.8 | 0.00 | 0.40 | 0.40 | 86 | 1006.1 |
| 20260506184127 | 64 | 205 | 3.5 | 7.8 | 0.00 | 0.40 | 0.40 | 86 | 1006.2 |
| 20260506184042 | 64 | 198 | 3.5 | 7.8 | 0.00 | 0.40 | 0.40 | 86 | 1006.2 |
| 20260506184036 | 64 | 198 | 3.5 | 7.8 | 0.00 | 0.40 | 0.40 | 86 | 1006.2 |
| 20260506183838 | 64 | 194 | 3.5 | 7.8 | 0.00 | 0.40 | 0.40 | 86 | 1006.3 |
| 20260506183831 | 64 | 198 | 3.5 | 7.8 | 0.00 | 0.40 | 0.40 | 86 | 1006.2 |
| 20260506183632 | 64 | 174 | 3.5 | 7.8 | 0.00 | 0.40 | 0.40 | 85 | 1006.2 |
| 20260506183624 | 64 | 163 | 3.5 | 7.8 | 0.00 | 0.40 | 0.40 | 85 | 1006.3 |
| 20260506183409 | 64 | 198 | 2.6 | 7.8 | 0.00 | 0.40 | 0.40 | 86 | 1006.2 |
| 20260506183303 | 64 | 169 | 2.6 | 7.0 | 0.00 | 0.40 | 0.40 | 85 | 1006.3 |
| 20260506183202 | 64 | 202 | 2.6 | 7.0 | 0.00 | 0.40 | 0.40 | 85 | 1006.2 |
| 20260506183057 | 64 | 205 | 2.6 | 7.0 | 0.00 | 0.40 | 0.40 | 85 | 1006.3 |
| 20260506182957 | 64 | 206 | 2.6 | 7.0 | 0.00 | 0.40 | 0.40 | 84 | 1006.3 |
| 20260506182851 | 64 | 192 | 2.6 | 7.0 | 0.00 | 0.40 | 0.40 | 84 | 1006.2 |
| 20260506182751 | 63 | 170 | 2.6 | 7.0 | 0.00 | 0.40 | 0.40 | 83 | 1006.3 |
| 20260506182645 | 63 | 186 | 2.6 | 7.0 | 0.00 | 0.40 | 0.40 | 83 | 1006.3 |
| 20260506182545 | 63 | 186 | 2.6 | 7.0 | 0.00 | 0.40 | 0.40 | 83 | 1006.3 |
| 20260506182439 | 63 | 186 | 2.6 | 7.0 | 0.00 | 0.40 | 0.40 | 84 | 1006.3 |
| 20260506182338 | 63 | 186 | 3.5 | 7.0 | 0.00 | 0.40 | 0.40 | 84 | 1006.2 |
| 20260506182256 | 63 | 188 | 2.6 | 7.8 | 0.00 | 0.40 | 0.40 | 84 | 1006.2 |
| 20260506182249 | 63 | 184 | 3.5 | 7.8 | 0.00 | 0.40 | 0.40 | 84 | 1006.3 |
| 20260506182027 | 63 | 207 | 3.5 | 7.8 | 0.00 | 0.40 | 0.40 | 83 | 1006.3 |
| 20260506181927 | 63 | 207 | 3.5 | 7.8 | 0.00 | 0.40 | 0.40 | 83 | 1006.3 |
| 20260506181820 | 63 | 190 | 3.5 | 7.8 | 0.00 | 0.40 | 0.40 | 83 | 1006.3 |
| 20260506181721 | 63 | 188 | 3.5 | 7.8 | 0.00 | 0.40 | 0.40 | 83 | 1006.3 |
| 20260506181621 | 63 | 138 | 3.5 | 7.8 | 0.00 | 0.40 | 0.40 | 84 | 1006.3 |
| 20260506181521 | 63 | 175 | 3.5 | 7.8 | 0.00 | 0.40 | 0.40 | 84 | 1006.3 |
| 20260506181420 | 63 | 188 | 3.5 | 7.8 | 0.00 | 0.40 | 0.40 | 84 | 1006.3 |
| 20260506181318 | 63 | 187 | 4.3 | 7.8 | 0.00 | 0.40 | 0.40 | 83 | 1006.3 |
| 20260506181218 | 62 | 166 | 4.3 | 7.8 | 0.00 | 0.40 | 0.40 | 83 | 1006.3 |
| 20260506181157 | 62 | 191 | 4.3 | 10.4 | 0.00 | 0.40 | 0.40 | 84 | 1006.3 |
| 20260506181154 | 62 | 168 | 4.3 | 10.4 | 0.00 | 0.40 | 0.40 | 83 | 1006.4 |
| 20260506181143 | 62 | 191 | 4.3 | 10.4 | 0.00 | 0.40 | 0.40 | 83 | 1006.3 |
| 20260506180813 | 62 | 178 | 4.3 | 10.4 | 0.00 | 0.40 | 0.40 | 83 | 1006.4 |
| 20260506180706 | 62 | 180 | 5.2 | 10.4 | 0.00 | 0.40 | 0.40 | 84 | 1006.4 |
| 20260506180648 | 62 | 167 | 5.2 | 10.4 | 0.00 | 0.40 | 0.40 | 84 | 1006.4 |
| 20260506180643 | 62 | 190 | 4.3 | 10.4 | 0.00 | 0.40 | 0.40 | 84 | 1006.4 |
| 20260506180633 | 62 | 198 | 5.2 | 10.4 | 0.00 | 0.40 | 0.40 | 84 | 1006.4 |
| 20260506180256 | 62 | 190 | 4.3 | 10.4 | 0.00 | 0.40 | 0.40 | 83 | 1006.4 |
| 20260506180155 | 62 | 189 | 4.3 | 10.4 | 0.00 | 0.40 | 0.40 | 83 | 1006.4 |
| 20260506180048 | 62 | 188 | 4.3 | 10.4 | 0.00 | 0.40 | 0.40 | 83 | 1006.4 |
| 20260506175949 | 62 | 199 | 5.2 | 10.4 | 0.00 | 0.40 | 0.40 | 83 | 1006.4 |
| 20260506175907 | 62 | 182 | 4.3 | 10.4 | 0.00 | 0.40 | 0.40 | 83 | 1006.4 |
| 20260506175858 | 62 | 183 | 4.3 | 10.4 | 0.00 | 0.40 | 0.40 | 83 | 1006.4 |
| 20260506175636 | 62 | 182 | 4.3 | 10.4 | 0.00 | 0.40 | 0.40 | 83 | 1006.4 |
| 20260506175537 | 62 | 193 | 4.3 | 10.4 | 0.00 | 0.40 | 0.40 | 82 | 1006.4 |
| 20260506175430 | 62 | 197 | 4.3 | 10.4 | 0.00 | 0.40 | 0.40 | 83 | 1006.4 |
| 20260506175331 | 62 | 202 | 4.3 | 10.4 | 0.00 | 0.40 | 0.40 | 83 | 1006.4 |
| 20260506175223 | 62 | 175 | 4.3 | 10.4 | 0.00 | 0.40 | 0.40 | 83 | 1006.4 |
| 20260506175208 | 62 | 171 | 4.3 | 8.7 | 0.00 | 0.40 | 0.40 | 83 | 1006.4 |
| 20260506175156 | 62 | 183 | 4.3 | 10.4 | 0.00 | 0.40 | 0.40 | 83 | 1006.4 |
| 20260506175036 | 62 | 202 | 4.3 | 9.6 | 0.00 | 0.40 | 0.40 | 83 | 1006.4 |
| 20260506174812 | 62 | 234 | 4.3 | 8.7 | 0.00 | 0.40 | 0.40 | 83 | 1006.4 |
| 20260506174713 | 62 | 184 | 4.3 | 8.7 | 0.00 | 0.40 | 0.40 | 84 | 1006.4 |
| 20260506174606 | 62 | 185 | 4.3 | 10.4 | 0.00 | 0.40 | 0.40 | 84 | 1006.4 |
| 20260506174506 | 62 | 180 | 4.3 | 10.4 | 0.00 | 0.40 | 0.40 | 84 | 1006.4 |
| 20260506174400 | 62 | 165 | 4.3 | 10.4 | 0.00 | 0.40 | 0.40 | 84 | 1006.4 |
| 20260506174301 | 62 | 193 | 4.3 | 10.4 | 0.00 | 0.40 | 0.40 | 84 | 1006.6 |
| 20260506174154 | 62 | 202 | 4.3 | 10.4 | 0.00 | 0.40 | 0.40 | 84 | 1006.6 |
| 20260506174113 | 62 | 174 | 4.3 | 10.4 | 0.00 | 0.40 | 0.40 | 84 | 1006.6 |
| 20260506174105 | 62 | 184 | 4.3 | 10.4 | 0.00 | 0.40 | 0.40 | 84 | 1006.6 |
| 20260506173849 | 62 | 213 | 4.3 | 10.4 | 0.00 | 0.40 | 0.40 | 84 | 1006.4 |
| 20260506173743 | 62 | 178 | 4.3 | 10.4 | 0.00 | 0.40 | 0.40 | 84 | 1006.4 |
| 20260506173643 | 62 | 217 | 5.2 | 10.4 | 0.00 | 0.40 | 0.40 | 84 | 1006.4 |
| 20260506173537 | 62 | 209 | 5.2 | 10.4 | 0.00 | 0.40 | 0.40 | 84 | 1006.4 |
| 20260506173455 | 62 | 198 | 5.2 | 10.4 | 0.00 | 0.40 | 0.40 | 84 | 1006.3 |
| 20260506173447 | 62 | 177 | 5.2 | 10.4 | 0.00 | 0.40 | 0.40 | 84 | 1006.4 |
| 20260506173231 | 62 | 173 | 5.2 | 10.4 | 0.00 | 0.40 | 0.40 | 84 | 1006.4 |
| 20260506173125 | 62 | 211 | 5.2 | 10.4 | 0.00 | 0.40 | 0.40 | 84 | 1006.3 |
| 20260506173025 | 62 | 227 | 5.2 | 10.4 | 0.00 | 0.40 | 0.40 | 84 | 1006.4 |
| 20260506172918 | 62 | 183 | 5.2 | 10.4 | 0.00 | 0.40 | 0.40 | 84 | 1006.4 |
| 20260506172819 | 62 | 233 | 5.2 | 10.4 | 0.00 | 0.40 | 0.40 | 84 | 1006.4 |
| 20260506172714 | 62 | 188 | 5.2 | 10.4 | 0.00 | 0.40 | 0.40 | 84 | 1006.4 |
| 20260506172638 | 62 | 202 | 4.3 | 9.6 | 0.00 | 0.40 | 0.40 | 84 | 1006.4 |
| 20260506172629 | 62 | 203 | 5.2 | 9.6 | 0.00 | 0.40 | 0.40 | 84 | 1006.4 |
| 20260506172413 | 62 | 188 | 4.3 | 8.7 | 0.00 | 0.40 | 0.40 | 83 | 1006.4 |
| 20260506172312 | 62 | 189 | 4.3 | 8.7 | 0.00 | 0.40 | 0.40 | 83 | 1006.4 |
| 20260506172210 | 62 | 177 | 4.3 | 8.7 | 0.00 | 0.40 | 0.40 | 83 | 1006.3 |
| 20260506172110 | 62 | 181 | 5.2 | 8.7 | 0.00 | 0.40 | 0.40 | 83 | 1006.4 |
| 20260506172011 | 62 | 203 | 4.3 | 8.7 | 0.00 | 0.40 | 0.40 | 84 | 1006.4 |
| 20260506171911 | 62 | 163 | 5.2 | 11.3 | 0.00 | 0.40 | 0.40 | 84 | 1006.4 |
| 20260506171828 | 62 | 198 | 4.3 | 11.3 | 0.00 | 0.40 | 0.40 | 84 | 1006.6 |
| 20260506171820 | 62 | 186 | 4.3 | 11.3 | 0.00 | 0.40 | 0.40 | 84 | 1006.4 |
| 20260506171622 | 62 | 217 | 4.3 | 11.3 | 0.00 | 0.40 | 0.40 | 83 | 1006.6 |
| 20260506171614 | 62 | 221 | 4.3 | 11.3 | 0.00 | 0.40 | 0.40 | 84 | 1006.6 |
| 20260506171352 | 61 | 209 | 5.2 | 11.3 | 0.00 | 0.40 | 0.40 | 83 | 1006.6 |
| 20260506171253 | 61 | 173 | 5.2 | 11.3 | 0.00 | 0.40 | 0.40 | 83 | 1006.4 |
| 20260506171211 | 61 | 194 | 4.3 | 11.3 | 0.00 | 0.40 | 0.40 | 83 | 1006.6 |
| 20260506171203 | 61 | 200 | 4.3 | 11.3 | 0.00 | 0.40 | 0.40 | 83 | 1006.6 |
| 20260506170941 | 61 | 186 | 4.3 | 11.3 | 0.00 | 0.40 | 0.40 | 83 | 1006.4 |
| 20260506170841 | 61 | 161 | 4.3 | 11.3 | 0.00 | 0.40 | 0.40 | 83 | 1006.4 |
| 20260506170735 | 61 | 183 | 4.3 | 11.3 | 0.00 | 0.40 | 0.40 | 83 | 1006.4 |
| 20260506170647 | 61 | 173 | 4.3 | 11.3 | 0.00 | 0.40 | 0.40 | 83 | 1006.4 |
| 20260506170549 | 61 | 200 | 4.3 | 11.3 | 0.00 | 0.40 | 0.40 | 83 | 1006.6 |
| 20260506170542 | 61 | 173 | 4.3 | 11.3 | 0.00 | 0.40 | 0.40 | 83 | 1006.4 |
| 20260506170327 | 61 | 196 | 4.3 | 11.3 | 0.00 | 0.40 | 0.40 | 83 | 1006.6 |
| 20260506170227 | 61 | 190 | 4.3 | 11.3 | 0.00 | 0.40 | 0.40 | 83 | 1006.6 |
| 20260506170127 | 61 | 180 | 5.2 | 11.3 | 0.00 | 0.40 | 0.40 | 83 | 1006.6 |
| 20260506170025 | 61 | 176 | 4.3 | 11.3 | 0.00 | 0.40 | 0.40 | 83 | 1006.6 |
| 20260506165924 | 61 | 206 | 4.3 | 10.4 | 0.00 | 0.40 | 0.40 | 83 | 1006.6 |
| 20260506165826 | 61 | 190 | 4.3 | 10.4 | 0.00 | 0.40 | 0.40 | 83 | 1006.6 |
| 20260506165725 | 61 | 187 | 5.2 | 10.4 | 0.00 | 0.40 | 0.40 | 83 | 1006.6 |
| 20260506165619 | 61 | 213 | 5.2 | 10.4 | 0.00 | 0.40 | 0.40 | 83 | 1006.6 |
| 20260506165519 | 61 | 180 | 5.2 | 10.4 | 0.00 | 0.40 | 0.40 | 83 | 1006.6 |
| 20260506165413 | 61 | 182 | 5.2 | 10.4 | 0.00 | 0.40 | 0.40 | 83 | 1006.6 |
| 20260506165314 | 61 | 188 | 5.2 | 10.4 | 0.00 | 0.40 | 0.40 | 83 | 1006.6 |
| 20260506165207 | 61 | 207 | 5.2 | 15.6 | 0.00 | 0.40 | 0.40 | 83 | 1006.4 |
| 20260506165107 | 61 | 178 | 5.2 | 15.6 | 0.00 | 0.40 | 0.40 | 83 | 1006.6 |
| 20260506165001 | 61 | 175 | 5.2 | 15.6 | 0.00 | 0.40 | 0.40 | 83 | 1006.6 |
| 20260506164901 | 61 | 218 | 5.2 | 15.6 | 0.00 | 0.40 | 0.40 | 83 | 1006.6 |
| 20260506164818 | 61 | 195 | 5.2 | 15.6 | 0.00 | 0.40 | 0.40 | 83 | 1006.6 |
| 20260506164810 | 61 | 188 | 6.1 | 15.6 | 0.00 | 0.40 | 0.40 | 83 | 1006.6 |
| 20260506164551 | 61 | 207 | 5.2 | 15.6 | 0.00 | 0.40 | 0.40 | 83 | 1006.6 |
| 20260506164450 | 61 | 245 | 6.1 | 15.6 | 0.00 | 0.40 | 0.40 | 83 | 1006.7 |
| 20260506164351 | 61 | 204 | 6.1 | 15.6 | 0.00 | 0.40 | 0.40 | 83 | 1006.6 |
| 20260506164314 | 61 | 194 | 5.2 | 15.6 | 0.00 | 0.40 | 0.40 | 83 | 1006.6 |
| 20260506164305 | 61 | 178 | 6.1 | 15.6 | 0.00 | 0.40 | 0.40 | 83 | 1006.6 |
| 20260506164051 | 61 | 192 | 5.2 | 15.6 | 0.00 | 0.40 | 0.40 | 83 | 1006.6 |
| 20260506164008 | 61 | 200 | 4.3 | 15.6 | 0.00 | 0.40 | 0.40 | 83 | 1006.7 |
| 20260506164001 | 61 | 180 | 5.2 | 15.6 | 0.00 | 0.40 | 0.40 | 83 | 1006.6 |
| 20260506163745 | 61 | 209 | 4.3 | 15.6 | 0.00 | 0.40 | 0.40 | 82 | 1006.6 |
| 20260506163639 | 61 | 167 | 4.3 | 15.6 | 0.00 | 0.40 | 0.40 | 82 | 1006.6 |
| 20260506163538 | 61 | 209 | 3.5 | 15.6 | 0.00 | 0.40 | 0.40 | 82 | 1006.6 |
| 20260506163438 | 61 | 184 | 3.5 | 15.6 | 0.00 | 0.40 | 0.40 | 82 | 1006.6 |
| 20260506163339 | 61 | 229 | 3.5 | 15.6 | 0.00 | 0.40 | 0.40 | 82 | 1006.6 |
| 20260506163239 | 61 | 200 | 4.3 | 15.6 | 0.00 | 0.40 | 0.40 | 82 | 1006.6 |
| 20260506163139 | 61 | 204 | 4.3 | 15.6 | 0.00 | 0.40 | 0.40 | 82 | 1006.6 |
| 20260506163039 | 61 | 208 | 4.3 | 15.6 | 0.00 | 0.40 | 0.40 | 82 | 1006.6 |
| 20260506162934 | 61 | 198 | 4.3 | 15.6 | 0.00 | 0.40 | 0.40 | 82 | 1006.6 |
| 20260506162832 | 61 | 175 | 4.3 | 15.6 | 0.00 | 0.40 | 0.40 | 82 | 1006.6 |
| 20260506162729 | 61 | 186 | 4.3 | 15.6 | 0.00 | 0.40 | 0.40 | 82 | 1006.6 |
| 20260506162626 | 61 | 205 | 5.2 | 15.6 | 0.00 | 0.40 | 0.40 | 82 | 1006.6 |
| 20260506162528 | 61 | 215 | 5.2 | 15.6 | 0.00 | 0.40 | 0.40 | 82 | 1006.7 |
| 20260506162426 | 61 | 186 | 5.2 | 15.6 | 0.00 | 0.40 | 0.40 | 82 | 1006.7 |
| 20260506162411 | 61 | 188 | 4.3 | 8.7 | 0.00 | 0.40 | 0.40 | 82 | 1006.7 |
| 20260506162407 | 61 | 211 | 3.5 | 8.7 | 0.00 | 0.40 | 0.40 | 82 | 1006.6 |
| 20260506162357 | 61 | 188 | 4.3 | 15.6 | 0.00 | 0.40 | 0.40 | 82 | 1006.7 |
| 20260506162021 | 61 | 197 | 3.5 | 7.8 | 0.00 | 0.40 | 0.40 | 82 | 1006.7 |
| 20260506161921 | 61 | 220 | 3.5 | 7.8 | 0.00 | 0.40 | 0.40 | 82 | 1006.7 |
| 20260506161816 | 61 | 198 | 3.5 | 7.8 | 0.00 | 0.40 | 0.40 | 82 | 1006.7 |
| 20260506161713 | 61 | 198 | 3.5 | 7.8 | 0.00 | 0.40 | 0.40 | 82 | 1006.7 |
| 20260506161614 | 61 | 180 | 3.5 | 7.8 | 0.01 | 0.40 | 0.40 | 82 | 1006.7 |
| 20260506161534 | 61 | 174 | 3.5 | 7.0 | 0.01 | 0.40 | 0.40 | 82 | 1006.7 |
| 20260506161527 | 61 | 187 | 3.5 | 7.8 | 0.01 | 0.40 | 0.40 | 82 | 1006.7 |
| 20260506161333 | 61 | 181 | 3.5 | 7.0 | 0.01 | 0.40 | 0.40 | 82 | 1006.7 |
| 20260506161325 | 61 | 181 | 3.5 | 7.0 | 0.01 | 0.40 | 0.40 | 82 | 1006.7 |
| 20260506161110 | 61 | 190 | 3.5 | 13.9 | 0.01 | 0.40 | 0.40 | 82 | 1006.7 |
| 20260506161009 | 61 | 205 | 3.5 | 13.9 | 0.02 | 0.40 | 0.40 | 82 | 1006.7 |
| 20260506160903 | 61 | 205 | 4.3 | 13.9 | 0.02 | 0.40 | 0.40 | 82 | 1006.7 |
| 20260506160803 | 61 | 186 | 4.3 | 13.9 | 0.02 | 0.40 | 0.40 | 82 | 1006.8 |
| 20260506160656 | 61 | 185 | 4.3 | 13.9 | 0.02 | 0.40 | 0.40 | 82 | 1006.7 |
| 20260506160557 | 61 | 184 | 5.2 | 13.9 | 0.02 | 0.40 | 0.40 | 82 | 1006.7 |
| 20260506160451 | 61 | 186 | 5.2 | 13.9 | 0.03 | 0.40 | 0.40 | 82 | 1006.8 |
| 20260506160351 | 61 | 197 | 5.2 | 13.9 | 0.03 | 0.40 | 0.40 | 82 | 1006.7 |
| 20260506160308 | 61 | 184 | 6.1 | 13.9 | 0.04 | 0.40 | 0.40 | 82 | 1006.7 |
| 20260506160300 | 61 | 192 | 5.2 | 13.9 | 0.03 | 0.40 | 0.40 | 82 | 1006.7 |
| 20260506160039 | 61 | 210 | 6.1 | 13.9 | 0.04 | 0.40 | 0.40 | 82 | 1006.8 |
| 20260506155956 | 61 | 211 | 6.1 | 13.9 | 0.04 | 0.40 | 0.40 | 82 | 1006.8 |
| 20260506155949 | 61 | 198 | 6.1 | 13.9 | 0.04 | 0.40 | 0.40 | 82 | 1006.7 |
| 20260506155735 | 61 | 193 | 6.1 | 13.9 | 0.04 | 0.40 | 0.40 | 82 | 1006.7 |
| 20260506155626 | 61 | 178 | 6.1 | 13.9 | 0.05 | 0.40 | 0.40 | 82 | 1006.7 |
| 20260506155527 | 61 | 186 | 6.1 | 13.9 | 0.05 | 0.40 | 0.40 | 82 | 1006.7 |
| 20260506155421 | 61 | 193 | 6.1 | 13.9 | 0.05 | 0.40 | 0.40 | 82 | 1006.8 |
| 20260506155321 | 61 | 171 | 6.1 | 13.9 | 0.06 | 0.40 | 0.40 | 82 | 1006.7 |
| 20260506155239 | 61 | 173 | 5.2 | 11.3 | 0.06 | 0.40 | 0.40 | 82 | 1006.7 |
| 20260506155231 | 61 | 202 | 6.1 | 13.9 | 0.06 | 0.40 | 0.40 | 82 | 1006.8 |
| 20260506155016 | 61 | 179 | 5.2 | 11.3 | 0.07 | 0.40 | 0.40 | 82 | 1006.8 |
| 20260506154917 | 61 | 171 | 5.2 | 11.3 | 0.07 | 0.40 | 0.40 | 82 | 1006.8 |
| 20260506154817 | 61 | 196 | 6.1 | 11.3 | 0.07 | 0.40 | 0.40 | 82 | 1006.8 |
| 20260506154740 | 61 | 190 | 6.1 | 11.3 | 0.08 | 0.40 | 0.40 | 82 | 1006.7 |
| 20260506154733 | 61 | 194 | 6.1 | 11.3 | 0.07 | 0.40 | 0.40 | 82 | 1006.7 |
| 20260506154514 | 61 | 187 | 5.2 | 11.3 | 0.08 | 0.40 | 0.40 | 81 | 1006.7 |
| 20260506154414 | 61 | 181 | 6.1 | 11.3 | 0.08 | 0.40 | 0.40 | 82 | 1006.7 |
| 20260506154314 | 61 | 215 | 5.2 | 11.3 | 0.09 | 0.40 | 0.40 | 81 | 1006.7 |
| 20260506154223 | 61 | 176 | 6.1 | 11.3 | 0.10 | 0.40 | 0.40 | 81 | 1006.8 |
| 20260506154217 | 61 | 186 | 5.2 | 11.3 | 0.09 | 0.40 | 0.40 | 81 | 1006.7 |
| 20260506154212 | 61 | 190 | 6.1 | 11.3 | 0.10 | 0.40 | 0.40 | 81 | 1006.7 |
| 20260506154159 | 61 | 152 | 6.1 | 11.3 | 0.09 | 0.40 | 0.40 | 81 | 1006.7 |
| 20260506154040 | 61 | 182 | 6.1 | 11.3 | 0.10 | 0.40 | 0.40 | 81 | 1006.7 |
| 20260506153708 | 61 | 188 | 6.1 | 11.3 | 0.11 | 0.40 | 0.40 | 81 | 1006.7 |
| 20260506153609 | 61 | 179 | 6.1 | 11.3 | 0.11 | 0.40 | 0.40 | 81 | 1006.7 |
| 20260506153509 | 61 | 198 | 6.1 | 11.3 | 0.11 | 0.40 | 0.40 | 81 | 1006.7 |
| 20260506153408 | 61 | 173 | 5.2 | 11.3 | 0.11 | 0.40 | 0.40 | 82 | 1006.7 |
| 20260506153306 | 61 | 173 | 5.2 | 11.3 | 0.12 | 0.40 | 0.40 | 82 | 1006.7 |
| 20260506153208 | 61 | 181 | 5.2 | 11.3 | 0.12 | 0.40 | 0.40 | 82 | 1006.7 |
| 20260506153106 | 61 | 178 | 4.3 | 11.3 | 0.12 | 0.40 | 0.40 | 81 | 1006.7 |
| 20260506153007 | 61 | 207 | 4.3 | 11.3 | 0.13 | 0.40 | 0.40 | 82 | 1006.7 |
| 20260506152900 | 61 | 217 | 4.3 | 11.3 | 0.13 | 0.40 | 0.40 | 82 | 1006.7 |
| 20260506152801 | 61 | 190 | 4.3 | 11.3 | 0.13 | 0.40 | 0.40 | 81 | 1006.6 |
| 20260506152655 | 61 | 159 | 4.3 | 11.3 | 0.13 | 0.40 | 0.40 | 81 | 1006.4 |
| 20260506152634 | 61 | 199 | 4.3 | 13.0 | 0.15 | 0.40 | 0.40 | 81 | 1006.6 |
| 20260506152630 | 61 | 201 | 5.2 | 13.0 | 0.15 | 0.40 | 0.40 | 81 | 1006.6 |
| 20260506152620 | 61 | 180 | 4.3 | 11.3 | 0.14 | 0.40 | 0.40 | 81 | 1006.6 |
| 20260506152243 | 61 | 215 | 5.2 | 13.0 | 0.16 | 0.40 | 0.40 | 81 | 1006.6 |
| 20260506152200 | 61 | 180 | 5.2 | 13.0 | 0.18 | 0.40 | 0.40 | 81 | 1006.6 |
| 20260506152153 | 61 | 180 | 5.2 | 13.0 | 0.17 | 0.40 | 0.40 | 82 | 1006.6 |
| 20260506151937 | 61 | 165 | 5.2 | 13.0 | 0.18 | 0.40 | 0.40 | 82 | 1006.6 |
| 20260506151830 | 61 | 199 | 5.2 | 13.0 | 0.18 | 0.40 | 0.40 | 81 | 1006.6 |
| 20260506151731 | 61 | 181 | 5.2 | 13.0 | 0.18 | 0.40 | 0.40 | 81 | 1006.6 |
| 20260506151624 | 61 | 204 | 5.2 | 13.0 | 0.18 | 0.40 | 0.40 | 81 | 1006.6 |
| 20260506151525 | 61 | 163 | 5.2 | 13.0 | 0.17 | 0.39 | 0.39 | 81 | 1006.6 |
| 20260506151422 | 61 | 173 | 5.2 | 13.0 | 0.18 | 0.39 | 0.39 | 81 | 1006.4 |
| 20260506151322 | 61 | 173 | 5.2 | 13.0 | 0.18 | 0.39 | 0.39 | 81 | 1006.7 |
| 20260506151223 | 61 | 198 | 5.2 | 13.0 | 0.18 | 0.39 | 0.39 | 81 | 1006.7 |
| 20260506151122 | 60 | 165 | 5.2 | 13.0 | 0.18 | 0.39 | 0.39 | 81 | 1006.6 |
| 20260506151023 | 60 | 176 | 5.2 | 13.0 | 0.17 | 0.38 | 0.39 | 81 | 1006.7 |
| 20260506150923 | 60 | 149 | 5.2 | 13.0 | 0.18 | 0.38 | 0.38 | 81 | 1006.6 |
| 20260506150823 | 60 | 151 | 5.2 | 13.0 | 0.18 | 0.38 | 0.38 | 81 | 1006.4 |
| 20260506150717 | 60 | 169 | 5.2 | 13.0 | 0.19 | 0.38 | 0.38 | 81 | 1006.4 |
| 20260506150617 | 60 | 188 | 5.2 | 13.0 | 0.19 | 0.38 | 0.38 | 81 | 1006.6 |
| 20260506150512 | 60 | 109 | 5.2 | 10.4 | 0.18 | 0.37 | 0.38 | 81 | 1006.6 |
| 20260506150411 | 60 | 207 | 4.3 | 10.4 | 0.18 | 0.37 | 0.37 | 81 | 1006.7 |
| 20260506150305 | 60 | 184 | 4.3 | 10.4 | 0.18 | 0.37 | 0.37 | 81 | 1006.7 |
| 20260506150203 | 60 | 180 | 4.3 | 10.4 | 0.17 | 0.36 | 0.37 | 82 | 1006.7 |
| 20260506150128 | 60 | 190 | 4.3 | 10.4 | 0.17 | 0.36 | 0.36 | 82 | 1006.8 |
| 20260506150120 | 60 | 176 | 4.3 | 10.4 | 0.17 | 0.36 | 0.36 | 82 | 1006.8 |
| 20260506145904 | 60 | 152 | 4.3 | 10.4 | 0.17 | 0.36 | 0.36 | 82 | 1006.8 |
| 20260506145805 | 60 | 196 | 4.3 | 10.4 | 0.17 | 0.36 | 0.36 | 82 | 1006.8 |
| 20260506145705 | 60 | 178 | 4.3 | 10.4 | 0.16 | 0.35 | 0.35 | 82 | 1006.8 |
| 20260506145642 | 60 | 184 | 4.3 | 10.4 | 0.16 | 0.34 | 0.34 | 82 | 1007.0 |
| 20260506145637 | 60 | 165 | 4.3 | 10.4 | 0.16 | 0.34 | 0.35 | 82 | 1006.9 |
| 20260506145627 | 60 | 148 | 4.3 | 10.4 | 0.17 | 0.35 | 0.35 | 82 | 1006.8 |
| 20260506145612 | 60 | 190 | 4.3 | 10.4 | 0.17 | 0.35 | 0.35 | 82 | 1006.8 |
| 20260506145344 | 60 | 172 | 4.3 | 10.4 | 0.16 | 0.34 | 0.34 | 82 | 1007.0 |
| 20260506145333 | 60 | 179 | 4.3 | 10.4 | 0.16 | 0.34 | 0.34 | 82 | 1006.9 |
| 20260506145018 | 60 | 174 | 5.2 | 8.7 | 0.16 | 0.33 | 0.33 | 83 | 1007.1 |
| 20260506145011 | 60 | 171 | 4.3 | 8.7 | 0.15 | 0.33 | 0.34 | 83 | 1007.1 |
| 20260506144755 | 60 | 198 | 5.2 | 8.7 | 0.16 | 0.33 | 0.33 | 83 | 1007.1 |
| 20260506144649 | 60 | 184 | 5.2 | 8.7 | 0.15 | 0.32 | 0.33 | 83 | 1007.2 |
| 20260506144549 | 60 | 192 | 5.2 | 11.3 | 0.15 | 0.32 | 0.32 | 83 | 1007.2 |
| 20260506144506 | 60 | 182 | 5.2 | 11.3 | 0.15 | 0.31 | 0.32 | 83 | 1007.2 |
| 20260506144458 | 60 | 146 | 5.2 | 11.3 | 0.16 | 0.32 | 0.32 | 83 | 1007.2 |
| 20260506144236 | 60 | 182 | 5.2 | 11.3 | 0.15 | 0.31 | 0.31 | 83 | 1007.3 |
| 20260506144136 | 60 | 137 | 5.2 | 11.3 | 0.16 | 0.31 | 0.31 | 83 | 1007.3 |
| 20260506144031 | 60 | 192 | 5.2 | 11.3 | 0.16 | 0.31 | 0.31 | 83 | 1007.4 |
| 20260506143931 | 60 | 196 | 5.2 | 11.3 | 0.15 | 0.30 | 0.31 | 83 | 1007.4 |
| 20260506143825 | 60 | 175 | 5.2 | 11.3 | 0.16 | 0.30 | 0.30 | 83 | 1007.4 |
| 20260506143725 | 60 | 177 | 5.2 | 11.3 | 0.15 | 0.29 | 0.30 | 84 | 1007.5 |
| 20260506143621 | 60 | 190 | 6.1 | 11.3 | 0.15 | 0.29 | 0.29 | 84 | 1007.4 |
| 20260506143522 | 60 | 155 | 6.1 | 11.3 | 0.15 | 0.29 | 0.29 | 84 | 1007.5 |
| 20260506143422 | 60 | 161 | 6.1 | 11.3 | 0.15 | 0.29 | 0.29 | 84 | 1007.5 |
| 20260506143322 | 60 | 177 | 6.1 | 11.3 | 0.15 | 0.28 | 0.29 | 84 | 1007.5 |
| 20260506143222 | 60 | 155 | 6.1 | 11.3 | 0.15 | 0.28 | 0.28 | 84 | 1007.5 |
| 20260506143122 | 60 | 175 | 6.1 | 11.3 | 0.15 | 0.28 | 0.28 | 84 | 1007.6 |
| 20260506143023 | 61 | 217 | 6.1 | 11.3 | 0.15 | 0.28 | 0.28 | 84 | 1007.6 |
| 20260506142923 | 61 | 176 | 6.1 | 11.3 | 0.14 | 0.27 | 0.28 | 84 | 1007.7 |
| 20260506142824 | 61 | 198 | 6.1 | 11.3 | 0.15 | 0.27 | 0.27 | 84 | 1007.7 |
| 20260506142723 | 61 | 216 | 6.1 | 11.3 | 0.15 | 0.27 | 0.27 | 84 | 1007.6 |
| 20260506142620 | 61 | 210 | 5.2 | 11.3 | 0.14 | 0.26 | 0.26 | 84 | 1007.6 |
| 20260506142520 | 61 | 159 | 5.2 | 11.3 | 0.14 | 0.25 | 0.26 | 84 | 1007.5 |
| 20260506142420 | 61 | 184 | 4.3 | 8.7 | 0.14 | 0.25 | 0.25 | 84 | 1007.6 |
| 20260506142338 | 61 | 190 | 4.3 | 8.7 | 0.13 | 0.24 | 0.24 | 84 | 1007.6 |
| 20260506142331 | 61 | 178 | 4.3 | 8.7 | 0.13 | 0.24 | 0.24 | 84 | 1007.5 |
| 20260506142115 | 61 | 186 | 4.3 | 8.7 | 0.13 | 0.23 | 0.23 | 84 | 1007.5 |
| 20260506142032 | 61 | 205 | 4.3 | 8.7 | 0.12 | 0.22 | 0.22 | 84 | 1007.5 |
| 20260506142024 | 61 | 199 | 4.3 | 8.7 | 0.12 | 0.22 | 0.23 | 84 | 1007.6 |
| 20260506141826 | 61 | 205 | 4.3 | 8.7 | 0.13 | 0.22 | 0.22 | 84 | 1007.3 |
| 20260506141818 | 61 | 190 | 4.3 | 8.7 | 0.13 | 0.22 | 0.22 | 84 | 1007.4 |
| 20260506141557 | 61 | 197 | 4.3 | 8.7 | 0.13 | 0.22 | 0.22 | 84 | 1007.3 |
| 20260506141457 | 61 | 205 | 3.5 | 8.7 | 0.12 | 0.21 | 0.22 | 84 | 1007.3 |
| 20260506141352 | 61 | 188 | 3.5 | 8.7 | 0.12 | 0.21 | 0.21 | 84 | 1007.3 |
| 20260506141251 | 61 | 198 | 4.3 | 8.7 | 0.12 | 0.21 | 0.21 | 84 | 1007.3 |
| 20260506141145 | 61 | 190 | 4.3 | 8.7 | 0.12 | 0.21 | 0.21 | 84 | 1007.2 |
| 20260506141045 | 61 | 174 | 4.3 | 8.7 | 0.13 | 0.21 | 0.21 | 84 | 1007.2 |
| 20260506141002 | 61 | 218 | 4.3 | 8.7 | 0.12 | 0.20 | 0.20 | 84 | 1007.2 |
| 20260506140954 | 61 | 200 | 4.3 | 8.7 | 0.12 | 0.20 | 0.21 | 84 | 1007.3 |
| 20260506140734 | 61 | 186 | 4.3 | 8.7 | 0.11 | 0.19 | 0.19 | 84 | 1007.2 |
| 20260506140729 | 61 | 166 | 4.3 | 8.7 | 0.11 | 0.19 | 0.19 | 84 | 1007.0 |
| 20260506140723 | 61 | 186 | 4.3 | 8.7 | 0.11 | 0.19 | 0.19 | 84 | 1007.0 |
| 20260506140719 | 61 | 204 | 4.3 | 8.7 | 0.11 | 0.19 | 0.19 | 84 | 1007.0 |
| 20260506140708 | 61 | 169 | 4.3 | 8.7 | 0.11 | 0.19 | 0.19 | 84 | 1007.1 |
| 20260506140221 | 61 | 192 | 4.3 | 8.7 | 0.11 | 0.19 | 0.19 | 84 | 1007.0 |
| 20260506140116 | 61 | 194 | 4.3 | 7.8 | 0.11 | 0.19 | 0.19 | 84 | 1007.0 |
| 20260506140014 | 61 | 194 | 3.5 | 7.8 | 0.11 | 0.19 | 0.19 | 84 | 1007.0 |
| 20260506135909 | 61 | 224 | 3.5 | 7.8 | 0.11 | 0.19 | 0.19 | 84 | 1007.0 |
| 20260506135809 | 61 | 187 | 3.5 | 9.6 | 0.11 | 0.19 | 0.19 | 84 | 1007.0 |
| 20260506135703 | 61 | 182 | 3.5 | 9.6 | 0.11 | 0.19 | 0.19 | 84 | 1007.0 |
| 20260506135603 | 61 | 192 | 3.5 | 9.6 | 0.10 | 0.18 | 0.18 | 84 | 1007.0 |
| 20260506135536 | 61 | 186 | 3.5 | 9.6 | 0.10 | 0.18 | 0.18 | 84 | 1006.9 |
| 20260506135526 | 61 | 181 | 3.5 | 9.6 | 0.10 | 0.18 | 0.18 | 84 | 1006.9 |
| 20260506135406 | 61 | 176 | 3.5 | 9.6 | 0.10 | 0.18 | 0.18 | 84 | 1007.0 |
| 20260506135208 | 61 | 184 | 3.5 | 9.6 | 0.10 | 0.18 | 0.18 | 85 | 1006.9 |
| 20260506135200 | 61 | 207 | 3.5 | 9.6 | 0.10 | 0.18 | 0.18 | 85 | 1006.9 |
| 20260506134944 | 61 | 196 | 4.3 | 9.6 | 0.10 | 0.18 | 0.18 | 85 | 1006.9 |
| 20260506134900 | 60 | 184 | 4.3 | 9.6 | 0.09 | 0.17 | 0.17 | 85 | 1006.9 |
| 20260506134851 | 60 | 182 | 4.3 | 9.6 | 0.09 | 0.17 | 0.18 | 85 | 1007.0 |
| 20260506134632 | 60 | 187 | 4.3 | 9.6 | 0.09 | 0.17 | 0.17 | 85 | 1006.9 |
| 20260506134533 | 60 | 192 | 3.5 | 9.6 | 0.09 | 0.17 | 0.17 | 85 | 1006.9 |
| 20260506134433 | 60 | 172 | 4.3 | 9.6 | 0.09 | 0.16 | 0.17 | 85 | 1006.9 |
| 20260506134330 | 60 | 200 | 4.3 | 9.6 | 0.09 | 0.16 | 0.16 | 85 | 1006.9 |
| 20260506134230 | 61 | 183 | 4.3 | 10.4 | 0.09 | 0.16 | 0.16 | 85 | 1006.9 |
| 20260506134130 | 61 | 188 | 4.3 | 10.4 | 0.08 | 0.15 | 0.15 | 85 | 1006.9 |
| 20260506134031 | 61 | 210 | 4.3 | 10.4 | 0.08 | 0.15 | 0.15 | 85 | 1006.9 |
| 20260506133948 | 61 | 180 | 4.3 | 10.4 | 0.07 | 0.14 | 0.15 | 86 | 1006.9 |
| 20260506133939 | 61 | 139 | 4.3 | 10.4 | 0.08 | 0.15 | 0.15 | 86 | 1006.9 |
| 20260506133723 | 61 | 178 | 4.3 | 10.4 | 0.07 | 0.14 | 0.14 | 86 | 1006.9 |
| 20260506133620 | 61 | 173 | 4.3 | 10.4 | 0.07 | 0.14 | 0.14 | 86 | 1006.9 |
| 20260506133521 | 61 | 174 | 4.3 | 10.4 | 0.07 | 0.14 | 0.14 | 86 | 1007.0 |
| 20260506133420 | 61 | 205 | 4.3 | 10.4 | 0.07 | 0.14 | 0.14 | 86 | 1007.1 |
| 20260506133321 | 61 | 187 | 4.3 | 10.4 | 0.06 | 0.13 | 0.14 | 86 | 1007.0 |
| 20260506133221 | 61 | 195 | 4.3 | 10.4 | 0.07 | 0.13 | 0.13 | 86 | 1007.1 |
| 20260506133121 | 61 | 215 | 4.3 | 10.4 | 0.07 | 0.13 | 0.13 | 86 | 1007.1 |
| 20260506133014 | 61 | 196 | 4.3 | 10.4 | 0.07 | 0.13 | 0.13 | 86 | 1007.1 |
| 20260506132913 | 61 | 205 | 4.3 | 10.4 | 0.07 | 0.13 | 0.13 | 86 | 1007.1 |
| 20260506132808 | 61 | 182 | 4.3 | 10.4 | 0.06 | 0.12 | 0.13 | 86 | 1007.2 |
| 20260506132707 | 61 | 210 | 4.3 | 10.4 | 0.06 | 0.12 | 0.12 | 86 | 1007.1 |
| 20260506132607 | 61 | 209 | 4.3 | 10.4 | 0.05 | 0.11 | 0.12 | 86 | 1007.1 |
| 20260506132506 | 61 | 200 | 4.3 | 10.4 | 0.05 | 0.11 | 0.11 | 86 | 1007.2 |
| 20260506132406 | 61 | 184 | 4.3 | 10.4 | 0.05 | 0.11 | 0.11 | 86 | 1007.1 |
| 20260506132307 | 61 | 177 | 4.3 | 8.7 | 0.05 | 0.11 | 0.11 | 86 | 1007.2 |
| 20260506132207 | 61 | 200 | 4.3 | 8.7 | 0.05 | 0.11 | 0.11 | 86 | 1007.2 |
| 20260506132100 | 61 | 218 | 4.3 | 8.7 | 0.04 | 0.10 | 0.11 | 86 | 1007.2 |
| 20260506132000 | 61 | 206 | 4.3 | 8.7 | 0.05 | 0.10 | 0.10 | 86 | 1007.2 |
| 20260506131857 | 61 | 194 | 4.3 | 8.7 | 0.05 | 0.10 | 0.10 | 86 | 1007.1 |
| 20260506131758 | 61 | 192 | 5.2 | 8.7 | 0.04 | 0.09 | 0.10 | 86 | 1007.2 |
| 20260506131658 | 61 | 232 | 5.2 | 8.7 | 0.04 | 0.09 | 0.09 | 86 | 1007.2 |
| 20260506131558 | 61 | 194 | 5.2 | 8.7 | 0.04 | 0.09 | 0.09 | 86 | 1007.3 |
| 20260506131459 | 61 | 201 | 4.3 | 8.7 | 0.04 | 0.09 | 0.09 | 86 | 1007.2 |
| 20260506131352 | 61 | 222 | 4.3 | 8.7 | 0.04 | 0.09 | 0.09 | 86 | 1007.2 |
| 20260506131253 | 61 | 232 | 4.3 | 8.7 | 0.04 | 0.09 | 0.09 | 86 | 1007.1 |
| 20260506131147 | 61 | 225 | 4.3 | 8.7 | 0.04 | 0.09 | 0.09 | 86 | 1007.1 |
| 20260506131046 | 61 | 213 | 4.3 | 10.4 | 0.03 | 0.08 | 0.09 | 86 | 1007.1 |
| 20260506131008 | 61 | 208 | 4.3 | 10.4 | 0.04 | 0.08 | 0.08 | 86 | 1007.1 |
| 20260506131001 | 61 | 223 | 4.3 | 10.4 | 0.04 | 0.08 | 0.08 | 86 | 1007.1 |
| 20260506130744 | 61 | 206 | 4.3 | 10.4 | 0.04 | 0.08 | 0.08 | 86 | 1007.0 |
| 20260506130645 | 61 | 207 | 4.3 | 10.4 | 0.04 | 0.08 | 0.08 | 86 | 1007.0 |
| 20260506130544 | 61 | 227 | 4.3 | 10.4 | 0.04 | 0.08 | 0.08 | 86 | 1007.1 |
| 20260506130502 | 61 | 215 | 4.3 | 10.4 | 0.04 | 0.08 | 0.08 | 86 | 1007.0 |
| 20260506130455 | 61 | 221 | 4.3 | 10.4 | 0.04 | 0.08 | 0.08 | 86 | 1007.1 |
| 20260506130233 | 61 | 211 | 4.3 | 10.4 | 0.04 | 0.08 | 0.08 | 86 | 1007.1 |
| 20260506130132 | 61 | 206 | 5.2 | 10.4 | 0.04 | 0.08 | 0.08 | 86 | 1007.1 |
| 20260506130027 | 61 | 195 | 5.2 | 10.4 | 0.04 | 0.08 | 0.08 | 86 | 1007.1 |
| 20260506125927 | 61 | 209 | 5.2 | 10.4 | 0.05 | 0.08 | 0.08 | 86 | 1007.0 |
| 20260506125827 | 61 | 201 | 5.2 | 12.2 | 0.05 | 0.08 | 0.08 | 86 | 1006.9 |
| 20260506125726 | 61 | 192 | 5.2 | 12.2 | 0.05 | 0.08 | 0.08 | 86 | 1006.9 |
| 20260506125627 | 61 | 166 | 5.2 | 12.2 | 0.05 | 0.08 | 0.08 | 86 | 1007.0 |
| 20260506125526 | 61 | 196 | 5.2 | 12.2 | 0.05 | 0.08 | 0.08 | 86 | 1007.0 |
| 20260506125427 | 61 | 227 | 5.2 | 12.2 | 0.06 | 0.08 | 0.08 | 86 | 1007.1 |
| 20260506125341 | 61 | 174 | 5.2 | 12.2 | 0.06 | 0.08 | 0.08 | 86 | 1007.0 |
| 20260506125335 | 61 | 225 | 5.2 | 12.2 | 0.06 | 0.08 | 0.08 | 86 | 1007.1 |
| 20260506125121 | 61 | 199 | 5.2 | 12.2 | 0.06 | 0.08 | 0.08 | 86 | 1007.0 |
| 20260506125020 | 61 | 178 | 4.3 | 12.2 | 0.06 | 0.08 | 0.08 | 86 | 1007.1 |
| 20260506124919 | 61 | 204 | 4.3 | 12.2 | 0.06 | 0.08 | 0.08 | 86 | 1007.1 |
| 20260506124821 | 61 | 198 | 4.3 | 9.6 | 0.06 | 0.08 | 0.08 | 86 | 1007.1 |
| 20260506124719 | 61 | 219 | 4.3 | 9.6 | 0.06 | 0.08 | 0.08 | 86 | 1007.1 |
| 20260506124615 | 61 | 221 | 4.3 | 9.6 | 0.06 | 0.08 | 0.08 | 86 | 1007.2 |
| 20260506124516 | 61 | 219 | 4.3 | 9.6 | 0.06 | 0.07 | 0.07 | 86 | 1007.2 |
| 20260506124417 | 61 | 191 | 4.3 | 9.6 | 0.06 | 0.07 | 0.07 | 86 | 1007.2 |
| 20260506124402 | 61 | 216 | 4.3 | 9.6 | 0.06 | 0.07 | 0.07 | 86 | 1007.1 |
| 20260506124350 | 61 | 198 | 4.3 | 9.6 | 0.06 | 0.07 | 0.07 | 86 | 1007.1 |
| 20260506124230 | 61 | 222 | 4.3 | 9.6 | 0.06 | 0.07 | 0.07 | 86 | 1007.1 |
| 20260506124015 | 61 | 207 | 4.3 | 9.6 | 0.06 | 0.07 | 0.07 | 86 | 1007.2 |
| 20260506123917 | 61 | 193 | 4.3 | 13.0 | 0.06 | 0.07 | 0.07 | 86 | 1007.1 |
| 20260506123810 | 61 | 216 | 4.3 | 13.0 | 0.06 | 0.07 | 0.07 | 86 | 1007.2 |
| 20260506123710 | 61 | 225 | 5.2 | 13.0 | 0.06 | 0.07 | 0.07 | 86 | 1007.2 |
| 20260506123610 | 61 | 207 | 5.2 | 13.0 | 0.06 | 0.07 | 0.07 | 86 | 1007.2 |
| 20260506123510 | 61 | 209 | 5.2 | 13.0 | 0.06 | 0.07 | 0.07 | 86 | 1007.2 |
| 20260506123411 | 61 | 211 | 4.3 | 13.0 | 0.06 | 0.07 | 0.07 | 86 | 1007.2 |
| 20260506123309 | 61 | 219 | 4.3 | 13.0 | 0.06 | 0.07 | 0.07 | 86 | 1007.2 |
| 20260506123210 | 61 | 194 | 5.2 | 13.0 | 0.05 | 0.06 | 0.07 | 86 | 1007.2 |
| 20260506123111 | 61 | 207 | 5.2 | 13.0 | 0.05 | 0.06 | 0.06 | 86 | 1007.2 |
| 20260506123010 | 61 | 221 | 5.2 | 13.0 | 0.05 | 0.06 | 0.06 | 86 | 1007.2 |
| 20260506122910 | 61 | 210 | 6.1 | 13.0 | 0.05 | 0.06 | 0.06 | 86 | 1007.3 |
| 20260506122810 | 61 | 215 | 6.1 | 13.0 | 0.05 | 0.06 | 0.06 | 86 | 1007.3 |
| 20260506122710 | 61 | 218 | 6.1 | 13.0 | 0.06 | 0.06 | 0.06 | 86 | 1007.3 |
| 20260506122611 | 61 | 216 | 6.1 | 13.0 | 0.06 | 0.06 | 0.06 | 86 | 1007.3 |
| 20260506122510 | 61 | 211 | 6.1 | 13.0 | 0.06 | 0.06 | 0.06 | 86 | 1007.3 |
| 20260506122453 | 61 | 211 | 6.1 | 13.0 | 0.06 | 0.06 | 0.06 | 86 | 1007.3 |
| 20260506122449 | 61 | 198 | 6.1 | 13.0 | 0.06 | 0.06 | 0.06 | 86 | 1007.4 |
| 20260506122438 | 61 | 208 | 6.1 | 13.0 | 0.06 | 0.06 | 0.06 | 86 | 1007.4 |
| 20260506122107 | 61 | 222 | 6.1 | 13.0 | 0.06 | 0.06 | 0.06 | 86 | 1007.4 |
| 20260506122031 | 61 | 199 | 5.2 | 11.3 | 0.05 | 0.05 | 0.05 | 86 | 1007.4 |
| 20260506122021 | 61 | 203 | 5.2 | 13.0 | 0.06 | 0.06 | 0.06 | 86 | 1007.5 |
| 20260506121806 | 61 | 207 | 5.2 | 11.3 | 0.05 | 0.05 | 0.05 | 85 | 1007.4 |
| 20260506121706 | 62 | 207 | 4.3 | 11.3 | 0.05 | 0.05 | 0.05 | 85 | 1007.5 |
| 20260506121628 | 62 | 237 | 4.3 | 11.3 | 0.05 | 0.05 | 0.05 | 85 | 1007.5 |
| 20260506121620 | 62 | 209 | 4.3 | 11.3 | 0.05 | 0.05 | 0.05 | 85 | 1007.5 |
| 20260506121405 | 62 | 217 | 4.3 | 13.9 | 0.05 | 0.05 | 0.05 | 85 | 1007.5 |
| 20260506121302 | 62 | 221 | 4.3 | 13.9 | 0.05 | 0.05 | 0.05 | 85 | 1007.5 |
| 20260506121202 | 62 | 217 | 4.3 | 13.9 | 0.05 | 0.05 | 0.05 | 85 | 1007.5 |
| 20260506121104 | 62 | 213 | 4.3 | 13.9 | 0.05 | 0.05 | 0.05 | 85 | 1007.5 |
| 20260506120959 | 62 | 213 | 4.3 | 13.9 | 0.04 | 0.04 | 0.04 | 85 | 1007.6 |
| 20260506120858 | 62 | 226 | 4.3 | 13.9 | 0.04 | 0.04 | 0.04 | 84 | 1007.6 |
| 20260506120757 | 62 | 237 | 5.2 | 13.9 | 0.04 | 0.04 | 0.04 | 84 | 1007.6 |
| 20260506120659 | 62 | 234 | 5.2 | 13.9 | 0.04 | 0.04 | 0.04 | 84 | 1007.6 |
| 20260506120559 | 62 | 216 | 5.2 | 13.9 | 0.04 | 0.04 | 0.04 | 84 | 1007.6 |
| 20260506120459 | 62 | 225 | 5.2 | 13.9 | 0.04 | 0.04 | 0.04 | 84 | 1007.7 |
| 20260506120356 | 62 | 226 | 5.2 | 13.9 | 0.04 | 0.04 | 0.04 | 84 | 1007.7 |
| 20260506120257 | 62 | 222 | 5.2 | 13.9 | 0.04 | 0.04 | 0.04 | 84 | 1007.7 |
| 20260506120157 | 62 | 212 | 5.2 | 13.9 | 0.04 | 0.04 | 0.04 | 83 | 1007.7 |
| 20260506120056 | 62 | 234 | 5.2 | 13.9 | 0.04 | 0.04 | 0.04 | 83 | 1007.7 |
| 20260506115957 | 62 | 230 | 5.2 | 13.9 | 0.04 | 0.04 | 0.04 | 83 | 1007.7 |
| 20260506115856 | 63 | 236 | 5.2 | 13.9 | 0.03 | 0.03 | 0.04 | 83 | 1007.6 |
| 20260506115757 | 63 | 202 | 5.2 | 13.9 | 0.03 | 0.03 | 0.03 | 83 | 1007.7 |
| 20260506115655 | 63 | 241 | 5.2 | 13.9 | 0.03 | 0.03 | 0.03 | 82 | 1007.7 |
| 20260506115552 | 63 | 241 | 5.2 | 13.9 | 0.03 | 0.03 | 0.03 | 82 | 1007.7 |
| 20260506115453 | 63 | 247 | 5.2 | 13.9 | 0.02 | 0.02 | 0.03 | 82 | 1007.7 |
| 20260506115353 | 63 | 234 | 4.3 | 9.6 | 0.02 | 0.02 | 0.02 | 82 | 1007.7 |
| 20260506115252 | 63 | 242 | 4.3 | 9.6 | 0.02 | 0.02 | 0.02 | 82 | 1007.7 |
| 20260506115144 | 63 | 251 | 4.3 | 9.6 | 0.02 | 0.02 | 0.02 | 82 | 1007.7 |
| 20260506115045 | 63 | 246 | 4.3 | 9.6 | 0.02 | 0.02 | 0.02 | 81 | 1007.6 |
| 20260506114944 | 63 | 235 | 4.3 | 9.6 | 0.02 | 0.02 | 0.02 | 81 | 1007.6 |
| 20260506114844 | 63 | 236 | 4.3 | 9.6 | 0.02 | 0.02 | 0.02 | 81 | 1007.6 |
| 20260506114745 | 63 | 242 | 3.5 | 8.7 | 0.02 | 0.02 | 0.02 | 81 | 1007.5 |
| 20260506114645 | 63 | 242 | 3.5 | 8.7 | 0.02 | 0.02 | 0.02 | 80 | 1007.5 |
| 20260506114545 | 63 | 242 | 3.5 | 8.7 | 0.01 | 0.01 | 0.02 | 80 | 1007.4 |
| 20260506114442 | 63 | 240 | 3.5 | 8.7 | 0.01 | 0.01 | 0.01 | 80 | 1007.5 |
| 20260506114343 | 64 | 231 | 3.5 | 8.7 | 0.01 | 0.01 | 0.01 | 80 | 1007.4 |
| 20260506114242 | 64 | 244 | 3.5 | 8.7 | 0.01 | 0.01 | 0.01 | 79 | 1007.4 |
| 20260506114142 | 64 | 226 | 3.5 | 8.7 | 0.01 | 0.01 | 0.01 | 79 | 1007.3 |
| 20260506114040 | 64 | 212 | 3.5 | 8.7 | 0.01 | 0.01 | 0.01 | 79 | 1007.3 |
| 20260506113940 | 64 | 237 | 3.5 | 8.7 | 0.01 | 0.01 | 0.01 | 79 | 1007.3 |
| 20260506113904 | 64 | 224 | 3.5 | 10.4 | 0.01 | 0.01 | 0.01 | 78 | 1007.2 |
| 20260506113855 | 64 | 220 | 3.5 | 8.7 | 0.01 | 0.01 | 0.01 | 78 | 1007.2 |
| 20260506113641 | 64 | 226 | 3.5 | 10.4 | 0.01 | 0.01 | 0.01 | 78 | 1007.2 |
| 20260506113605 | 64 | 211 | 4.3 | 10.4 | 0.01 | 0.01 | 0.01 | 77 | 1007.1 |
| 20260506113557 | 64 | 213 | 3.5 | 10.4 | 0.01 | 0.01 | 0.01 | 77 | 1007.1 |
| 20260506113336 | 64 | 209 | 4.3 | 10.4 | 0.01 | 0.01 | 0.01 | 77 | 1007.1 |
| 20260506113238 | 64 | 206 | 5.2 | 10.4 | 0.01 | 0.01 | 0.01 | 77 | 1007.1 |
| 20260506113135 | 64 | 203 | 5.2 | 10.4 | 0.01 | 0.01 | 0.01 | 77 | 1007.0 |
| 20260506113034 | 64 | 193 | 5.2 | 10.4 | 0.01 | 0.01 | 0.01 | 77 | 1007.0 |
| 20260506112935 | 64 | 192 | 5.2 | 10.4 | 0.01 | 0.01 | 0.01 | 77 | 1006.9 |
| 20260506112833 | 65 | 178 | 5.2 | 10.4 | 0.01 | 0.01 | 0.01 | 76 | 1006.9 |
| 20260506112732 | 65 | 188 | 5.2 | 10.4 | 0.01 | 0.01 | 0.01 | 76 | 1006.9 |
| 20260506112633 | 65 | 221 | 5.2 | 10.4 | 0.00 | 0.00 | 0.01 | 75 | 1007.0 |
| 20260506112533 | 65 | 197 | 5.2 | 10.4 | 0.00 | 0.00 | 0.00 | 75 | 1007.0 |
| 20260506112432 | 65 | 187 | 5.2 | 10.4 | 0.00 | 0.00 | 0.00 | 75 | 1007.0 |
| 20260506112333 | 65 | 153 | 5.2 | 11.3 | 0.00 | 0.00 | 0.00 | 75 | 1007.0 |
| 20260506112232 | 65 | 159 | 5.2 | 11.3 | 0.00 | 0.00 | 0.00 | 74 | 1007.0 |
| 20260506112133 | 65 | 208 | 5.2 | 11.3 | 0.00 | 0.00 | 0.00 | 74 | 1007.0 |
| 20260506112027 | 65 | 188 | 5.2 | 11.3 | 0.00 | 0.00 | 0.00 | 74 | 1007.0 |
| 20260506111927 | 65 | 181 | 5.2 | 11.3 | 0.00 | 0.00 | 0.00 | 74 | 1007.0 |
| 20260506111826 | 65 | 162 | 5.2 | 11.3 | 0.00 | 0.00 | 0.00 | 73 | 1007.0 |
| 20260506111727 | 65 | 161 | 5.2 | 11.3 | 0.00 | 0.00 | 0.00 | 73 | 1006.9 |
| 20260506111627 | 65 | 199 | 5.2 | 11.3 | 0.00 | 0.00 | 0.00 | 73 | 1007.0 |
| 20260506111519 | 65 | 181 | 5.2 | 11.3 | 0.00 | 0.00 | 0.00 | 73 | 1007.0 |
| 20260506111421 | 66 | 174 | 5.2 | 11.3 | 0.00 | 0.00 | 0.00 | 72 | 1006.9 |
| 20260506111320 | 66 | 228 | 5.2 | 11.3 | 0.00 | 0.00 | 0.00 | 72 | 1006.9 |
| 20260506111246 | 66 | 189 | 5.2 | 11.3 | 0.00 | 0.00 | 0.00 | 72 | 1006.9 |
| 20260506111237 | 66 | 181 | 5.2 | 11.3 | 0.00 | 0.00 | 0.00 | 72 | 1006.9 |
| 20260506111017 | 66 | 177 | 5.2 | 11.3 | 0.00 | 0.00 | 0.00 | 72 | 1006.8 |
| 20260506110938 | 66 | 204 | 5.2 | 12.2 | 0.00 | 0.00 | 0.00 | 71 | 1006.8 |
| 20260506110929 | 66 | 188 | 5.2 | 11.3 | 0.00 | 0.00 | 0.00 | 71 | 1006.8 |
| 20260506110715 | 66 | 192 | 4.3 | 12.2 | 0.00 | 0.00 | 0.00 | 71 | 1006.8 |
| 20260506110615 | 66 | 190 | 4.3 | 12.2 | 0.00 | 0.00 | 0.00 | 70 | 1006.9 |
| 20260506110515 | 66 | 186 | 4.3 | 12.2 | 0.00 | 0.00 | 0.00 | 70 | 1006.8 |
| 20260506110415 | 66 | 184 | 4.3 | 12.2 | 0.00 | 0.00 | 0.00 | 70 | 1006.9 |
| 20260506110331 | 66 | 196 | 5.2 | 12.2 | 0.00 | 0.00 | 0.00 | 69 | 1006.9 |
| 20260506110325 | 66 | 191 | 5.2 | 12.2 | 0.00 | 0.00 | 0.00 | 70 | 1006.8 |
| 20260506110155 | 66 | 192 | 6.1 | 12.2 | 0.00 | 0.00 | 0.00 | 69 | 1006.7 |
| 20260506110143 | 66 | 155 | 5.2 | 12.2 | 0.00 | 0.00 | 0.00 | 69 | 1006.8 |
| 20260506110023 | 66 | 167 | 5.2 | 12.2 | 0.00 | 0.00 | 0.00 | 69 | 1006.8 |
| 20260506105804 | 66 | 188 | 6.1 | 13.0 | 0.00 | 0.00 | 0.00 | 69 | 1006.7 |
| 20260506105705 | 67 | 191 | 6.1 | 13.0 | 0.00 | 0.00 | 0.00 | 69 | 1006.7 |
| 20260506105605 | 67 | 169 | 6.1 | 13.0 | 0.00 | 0.00 | 0.00 | 69 | 1006.6 |
| 20260506105503 | 67 | 178 | 6.1 | 13.0 | 0.00 | 0.00 | 0.00 | 68 | 1006.6 |
| 20260506105402 | 66 | 148 | 5.2 | 13.0 | 0.00 | 0.00 | 0.00 | 69 | 1006.6 |
| 20260506105305 | 66 | 156 | 5.2 | 13.0 | 0.00 | 0.00 | 0.00 | 68 | 1006.7 |
| 20260506105203 | 66 | 211 | 4.3 | 13.0 | 0.00 | 0.00 | 0.00 | 69 | 1006.7 |
| 20260506105102 | 66 | 184 | 4.3 | 13.0 | 0.00 | 0.00 | 0.00 | 68 | 1006.7 |
| 20260506105003 | 66 | 173 | 4.3 | 13.0 | 0.00 | 0.00 | 0.00 | 68 | 1006.6 |
| 20260506104901 | 66 | 175 | 4.3 | 13.0 | 0.00 | 0.00 | 0.00 | 69 | 1006.6 |
| 20260506104803 | 66 | 234 | 3.5 | 10.4 | 0.00 | 0.00 | 0.00 | 69 | 1006.6 |
| 20260506104657 | 66 | 180 | 3.5 | 10.4 | 0.00 | 0.00 | 0.00 | 68 | 1006.6 |
| 20260506104555 | 66 | 184 | 3.5 | 11.3 | 0.00 | 0.00 | 0.00 | 68 | 1006.4 |
| 20260506104452 | 66 | 165 | 3.5 | 11.3 | 0.00 | 0.00 | 0.00 | 69 | 1006.6 |
| 20260506104352 | 66 | 185 | 3.5 | 11.3 | 0.00 | 0.00 | 0.00 | 68 | 1006.6 |
| 20260506104253 | 66 | 231 | 4.3 | 11.3 | 0.00 | 0.00 | 0.00 | 68 | 1006.6 |
| 20260506104152 | 66 | 232 | 4.3 | 11.3 | 0.00 | 0.00 | 0.00 | 68 | 1006.6 |
| 20260506104053 | 66 | 171 | 4.3 | 11.3 | 0.00 | 0.00 | 0.00 | 68 | 1006.6 |
| 20260506103952 | 66 | 177 | 4.3 | 11.3 | 0.00 | 0.00 | 0.00 | 68 | 1006.6 |
| 20260506103852 | 66 | 178 | 4.3 | 11.3 | 0.00 | 0.00 | 0.00 | 68 | 1006.4 |
| 20260506103753 | 66 | 181 | 4.3 | 11.3 | 0.00 | 0.00 | 0.00 | 68 | 1006.6 |
| 20260506103712 | 66 | 185 | 4.3 | 11.3 | 0.00 | 0.00 | 0.00 | 68 | 1006.4 |
| 20260506103703 | 66 | 189 | 4.3 | 11.3 | 0.00 | 0.00 | 0.00 | 68 | 1006.4 |
| 20260506103448 | 66 | 188 | 4.3 | 11.3 | 0.00 | 0.00 | 0.00 | 68 | 1006.4 |
| 20260506103349 | 66 | 180 | 4.3 | 11.3 | 0.00 | 0.00 | 0.00 | 68 | 1006.4 |
| 20260506103248 | 67 | 184 | 4.3 | 11.3 | 0.00 | 0.00 | 0.00 | 68 | 1006.4 |
| 20260506103148 | 67 | 198 | 4.3 | 11.3 | 0.00 | 0.00 | 0.00 | 68 | 1006.4 |
| 20260506103048 | 67 | 175 | 4.3 | 11.3 | 0.00 | 0.00 | 0.00 | 68 | 1006.4 |
| 20260506103030 | 67 | 169 | 4.3 | 11.3 | 0.00 | 0.00 | 0.00 | 68 | 1006.3 |
| 20260506103025 | 67 | 180 | 4.3 | 11.3 | 0.00 | 0.00 | 0.00 | 67 | 1006.4 |
| 20260506103016 | 67 | 159 | 4.3 | 11.3 | 0.00 | 0.00 | 0.00 | 68 | 1006.4 |
| 20260506102645 | 67 | 199 | 4.3 | 11.3 | 0.00 | 0.00 | 0.00 | 67 | 1006.3 |
| 20260506102545 | 67 | 194 | 4.3 | 11.3 | 0.00 | 0.00 | 0.00 | 67 | 1006.4 |
| 20260506102444 | 67 | 207 | 4.3 | 11.3 | 0.00 | 0.00 | 0.00 | 67 | 1006.3 |
| 20260506102345 | 67 | 213 | 4.3 | 11.3 | 0.00 | 0.00 | 0.00 | 67 | 1006.4 |
| 20260506102308 | 67 | 221 | 4.3 | 11.3 | 0.00 | 0.00 | 0.00 | 67 | 1006.3 |
| 20260506102300 | 67 | 213 | 4.3 | 11.3 | 0.00 | 0.00 | 0.00 | 67 | 1006.3 |
| 20260506102056 | 67 | 192 | 4.3 | 9.6 | 0.00 | 0.00 | 0.00 | 66 | 1006.4 |
| 20260506102049 | 67 | 194 | 4.3 | 9.6 | 0.00 | 0.00 | 0.00 | 67 | 1006.3 |
| 20260506102034 | 67 | 196 | 4.3 | 9.6 | 0.00 | 0.00 | 0.00 | 67 | 1006.3 |
| 20260506101922 | 67 | 197 | 4.3 | 9.6 | 0.00 | 0.00 | 0.00 | 66 | 1006.3 |
| 20260506101911 | 67 | 191 | 5.2 | 9.6 | 0.00 | 0.00 | 0.00 | 66 | 1006.4 |
| 20260506101540 | 67 | 194 | 4.3 | 9.6 | 0.00 | 0.00 | 0.00 | 66 | 1006.4 |
| 20260506101439 | 67 | 202 | 4.3 | 9.6 | 0.00 | 0.00 | 0.00 | 66 | 1006.3 |
| 20260506101341 | 67 | 202 | 4.3 | 9.6 | 0.00 | 0.00 | 0.00 | 67 | 1006.2 |
| 20260506101236 | 67 | 178 | 4.3 | 9.6 | 0.00 | 0.00 | 0.00 | 66 | 1006.2 |
| 20260506101135 | 67 | 169 | 4.3 | 9.6 | 0.00 | 0.00 | 0.00 | 66 | 1006.2 |
| 20260506101036 | 67 | 176 | 3.5 | 9.6 | 0.00 | 0.00 | 0.00 | 66 | 1006.2 |
| 20260506100936 | 67 | 175 | 3.5 | 8.7 | 0.00 | 0.00 | 0.00 | 66 | 1006.1 |
| 20260506100836 | 67 | 172 | 3.5 | 16.5 | 0.00 | 0.00 | 0.00 | 66 | 1006.1 |
| 20260506100759 | 67 | 178 | 4.3 | 16.5 | 0.00 | 0.00 | 0.00 | 66 | 1006.1 |
| 20260506100752 | 67 | 182 | 4.3 | 16.5 | 0.00 | 0.00 | 0.00 | 66 | 1006.0 |
| 20260506100537 | 67 | 193 | 4.3 | 16.5 | 0.00 | 0.00 | 0.00 | 66 | 1006.1 |
| 20260506100432 | 67 | 210 | 4.3 | 16.5 | 0.00 | 0.00 | 0.00 | 66 | 1006.1 |
| 20260506100333 | 67 | 198 | 5.2 | 16.5 | 0.00 | 0.00 | 0.00 | 66 | 1006.1 |
| 20260506100232 | 67 | 198 | 5.2 | 16.5 | 0.00 | 0.00 | 0.00 | 65 | 1006.0 |
| 20260506100132 | 67 | 182 | 5.2 | 16.5 | 0.00 | 0.00 | 0.00 | 66 | 1006.0 |
| 20260506100032 | 67 | 185 | 6.1 | 16.5 | 0.00 | 0.00 | 0.00 | 66 | 1006.0 |
| 20260506095932 | 67 | 182 | 6.1 | 16.5 | 0.00 | 0.00 | 0.00 | 66 | 1006.0 |
| 20260506095832 | 67 | 186 | 5.2 | 16.5 | 0.00 | 0.00 | 0.00 | 65 | 1005.9 |
| 20260506095733 | 67 | 138 | 5.2 | 16.5 | 0.00 | 0.00 | 0.00 | 65 | 1006.0 |
| 20260506095628 | 67 | 183 | 5.2 | 16.5 | 0.00 | 0.00 | 0.00 | 65 | 1006.0 |
| 20260506095528 | 67 | 176 | 4.3 | 16.5 | 0.00 | 0.00 | 0.00 | 66 | 1006.0 |
| 20260506095428 | 67 | 180 | 4.3 | 16.5 | 0.00 | 0.00 | 0.00 | 65 | 1005.8 |
| 20260506095352 | 67 | 192 | 4.3 | 16.5 | 0.00 | 0.00 | 0.00 | 65 | 1005.9 |
| 20260506095343 | 67 | 185 | 4.3 | 16.5 | 0.00 | 0.00 | 0.00 | 65 | 1005.9 |
| 20260506095128 | 67 | 196 | 4.3 | 16.5 | 0.00 | 0.00 | 0.00 | 66 | 1005.9 |
| 20260506095028 | 67 | 198 | 5.2 | 16.5 | 0.00 | 0.00 | 0.00 | 65 | 1005.9 |
| 20260506094929 | 67 | 166 | 4.3 | 16.5 | 0.00 | 0.00 | 0.00 | 65 | 1005.8 |
| 20260506094825 | 67 | 144 | 5.2 | 12.2 | 0.00 | 0.00 | 0.00 | 65 | 1005.8 |
| 20260506094746 | 67 | 182 | 5.2 | 12.2 | 0.00 | 0.00 | 0.00 | 65 | 1005.9 |
| 20260506094739 | 67 | 183 | 5.2 | 12.2 | 0.00 | 0.00 | 0.00 | 65 | 1005.8 |
| 20260506094524 | 67 | 177 | 5.2 | 12.2 | 0.00 | 0.00 | 0.00 | 65 | 1005.9 |
| 20260506094423 | 67 | 200 | 5.2 | 12.2 | 0.00 | 0.00 | 0.00 | 65 | 1005.8 |
| 20260506094325 | 67 | 188 | 5.2 | 12.2 | 0.00 | 0.00 | 0.00 | 65 | 1005.9 |
| 20260506094247 | 67 | 142 | 4.3 | 12.2 | 0.00 | 0.00 | 0.00 | 64 | 1005.9 |
| 20260506094239 | 67 | 157 | 5.2 | 12.2 | 0.00 | 0.00 | 0.00 | 65 | 1005.9 |
| 20260506094043 | 67 | 152 | 4.3 | 11.3 | 0.00 | 0.00 | 0.00 | 64 | 1006.0 |
| 20260506094036 | 67 | 192 | 4.3 | 11.3 | 0.00 | 0.00 | 0.00 | 64 | 1006.0 |
| 20260506093821 | 68 | 204 | 4.3 | 12.2 | 0.00 | 0.00 | 0.00 | 64 | 1006.0 |
| 20260506093721 | 68 | 179 | 4.3 | 12.2 | 0.00 | 0.00 | 0.00 | 64 | 1006.0 |
| 20260506093620 | 68 | 166 | 5.2 | 12.2 | 0.00 | 0.00 | 0.00 | 64 | 1006.0 |
| 20260506093521 | 68 | 162 | 5.2 | 12.2 | 0.00 | 0.00 | 0.00 | 64 | 1005.9 |
| 20260506093420 | 68 | 136 | 5.2 | 12.2 | 0.00 | 0.00 | 0.00 | 64 | 1006.0 |
| 20260506093321 | 68 | 166 | 5.2 | 12.2 | 0.00 | 0.00 | 0.00 | 64 | 1006.0 |
| 20260506093217 | 68 | 158 | 5.2 | 12.2 | 0.00 | 0.00 | 0.00 | 63 | 1006.0 |
| 20260506093116 | 68 | 153 | 5.2 | 12.2 | 0.00 | 0.00 | 0.00 | 63 | 1006.0 |
| 20260506093018 | 68 | 165 | 5.2 | 12.2 | 0.00 | 0.00 | 0.00 | 63 | 1006.1 |
| 20260506092916 | 68 | 187 | 5.2 | 12.2 | 0.00 | 0.00 | 0.00 | 63 | 1006.0 |
| 20260506092816 | 68 | 166 | 5.2 | 12.2 | 0.00 | 0.00 | 0.00 | 63 | 1006.0 |
| 20260506092716 | 68 | 155 | 5.2 | 12.2 | 0.00 | 0.00 | 0.00 | 63 | 1006.0 |
| 20260506092616 | 68 | 176 | 5.2 | 12.2 | 0.00 | 0.00 | 0.00 | 63 | 1006.0 |
| 20260506092517 | 68 | 200 | 5.2 | 14.8 | 0.00 | 0.00 | 0.00 | 63 | 1006.1 |
| 20260506092410 | 68 | 173 | 5.2 | 14.8 | 0.00 | 0.00 | 0.00 | 63 | 1006.1 |
| 20260506092310 | 68 | 191 | 5.2 | 14.8 | 0.00 | 0.00 | 0.00 | 63 | 1006.1 |
| 20260506092211 | 68 | 167 | 5.2 | 14.8 | 0.00 | 0.00 | 0.00 | 63 | 1006.1 |
| 20260506092110 | 68 | 192 | 5.2 | 14.8 | 0.00 | 0.00 | 0.00 | 63 | 1006.1 |
| 20260506092011 | 68 | 144 | 5.2 | 14.8 | 0.00 | 0.00 | 0.00 | 63 | 1006.1 |
| 20260506091903 | 68 | 164 | 5.2 | 14.8 | 0.00 | 0.00 | 0.00 | 62 | 1006.1 |
| 20260506091804 | 68 | 190 | 5.2 | 14.8 | 0.00 | 0.00 | 0.00 | 62 | 1006.1 |
| 20260506091750 | 68 | 185 | 6.1 | 14.8 | 0.00 | 0.00 | 0.00 | 63 | 1006.0 |
| 20260506091745 | 68 | 148 | 7.0 | 14.8 | 0.00 | 0.00 | 0.00 | 62 | 1006.1 |
| 20260506091736 | 68 | 194 | 6.1 | 14.8 | 0.00 | 0.00 | 0.00 | 62 | 1006.1 |
| 20260506091358 | 68 | 165 | 7.0 | 14.8 | 0.00 | 0.00 | 0.00 | 62 | 1006.1 |
| 20260506091259 | 68 | 196 | 7.0 | 14.8 | 0.00 | 0.00 | 0.00 | 62 | 1006.1 |
| 20260506091158 | 68 | 156 | 7.8 | 15.6 | 0.00 | 0.00 | 0.00 | 62 | 1006.1 |
| 20260506091121 | 68 | 168 | 7.0 | 15.6 | 0.00 | 0.00 | 0.00 | 62 | 1006.1 |
| 20260506091113 | 68 | 143 | 7.8 | 15.6 | 0.00 | 0.00 | 0.00 | 62 | 1006.1 |
| 20260506090917 | 68 | 180 | 7.0 | 15.6 | 0.00 | 0.00 | 0.00 | 62 | 1006.1 |
| 20260506090909 | 68 | 188 | 7.0 | 15.6 | 0.00 | 0.00 | 0.00 | 62 | 1006.1 |
| 20260506090653 | 68 | 181 | 7.0 | 15.6 | 0.00 | 0.00 | 0.00 | 62 | 1006.1 |
| 20260506090554 | 68 | 159 | 6.1 | 15.6 | 0.00 | 0.00 | 0.00 | 62 | 1006.1 |
| 20260506090454 | 68 | 198 | 6.1 | 15.6 | 0.00 | 0.00 | 0.00 | 62 | 1006.3 |
| 20260506090420 | 68 | 175 | 5.2 | 15.6 | 0.00 | 0.00 | 0.00 | 62 | 1006.3 |
| 20260506090411 | 68 | 188 | 6.1 | 15.6 | 0.00 | 0.00 | 0.00 | 62 | 1006.2 |
| 20260506090155 | 68 | 169 | 5.2 | 13.9 | 0.00 | 0.00 | 0.00 | 62 | 1006.3 |
| 20260506090051 | 68 | 155 | 5.2 | 13.9 | 0.00 | 0.00 | 0.00 | 62 | 1006.4 |
| 20260506090035 | 68 | 133 | 5.2 | 13.9 | 0.00 | 0.00 | 0.00 | 62 | 1006.3 |
| 20260506090029 | 68 | 188 | 5.2 | 13.9 | 0.00 | 0.00 | 0.00 | 62 | 1006.3 |
| 20260506090020 | 68 | 167 | 5.2 | 13.9 | 0.00 | 0.00 | 0.00 | 62 | 1006.4 |
| 20260506085649 | 68 | 188 | 6.1 | 13.9 | 0.00 | 0.00 | 0.00 | 62 | 1006.4 |
| 20260506085609 | 68 | 165 | 6.1 | 18.2 | 0.00 | 0.00 | 0.00 | 62 | 1006.3 |
| 20260506085600 | 68 | 171 | 6.1 | 18.2 | 0.00 | 0.00 | 0.00 | 61 | 1006.3 |
| 20260506085431 | 68 | 172 | 7.0 | 18.2 | 0.00 | 0.00 | 0.00 | 61 | 1006.3 |
| 20260506085420 | 68 | 183 | 7.0 | 18.2 | 0.00 | 0.00 | 0.00 | 61 | 1006.3 |
| 20260506085301 | 68 | 146 | 7.0 | 18.2 | 0.00 | 0.00 | 0.00 | 61 | 1006.3 |
| 20260506085045 | 68 | 173 | 7.0 | 18.2 | 0.00 | 0.00 | 0.00 | 61 | 1006.3 |
| 20260506084945 | 68 | 198 | 7.0 | 18.2 | 0.00 | 0.00 | 0.00 | 61 | 1006.3 |
| 20260506084901 | 68 | 182 | 7.0 | 18.2 | 0.00 | 0.00 | 0.00 | 61 | 1006.3 |
| 20260506084855 | 68 | 162 | 7.0 | 18.2 | 0.00 | 0.00 | 0.00 | 61 | 1006.3 |
| 20260506084638 | 68 | 171 | 7.0 | 18.2 | 0.00 | 0.00 | 0.00 | 61 | 1006.2 |
| 20260506084537 | 68 | 184 | 7.8 | 18.2 | 0.00 | 0.00 | 0.00 | 61 | 1006.3 |
| 20260506084504 | 68 | 178 | 7.0 | 18.2 | 0.00 | 0.00 | 0.00 | 61 | 1006.3 |
| 20260506084455 | 68 | 169 | 7.8 | 18.2 | 0.00 | 0.00 | 0.00 | 61 | 1006.3 |
| 20260506084257 | 68 | 204 | 7.0 | 18.2 | 0.00 | 0.00 | 0.00 | 61 | 1006.3 |
| 20260506084250 | 68 | 156 | 7.0 | 18.2 | 0.00 | 0.00 | 0.00 | 61 | 1006.3 |
| 20260506084036 | 68 | 180 | 6.1 | 18.2 | 0.00 | 0.00 | 0.00 | 61 | 1006.3 |
| 20260506083934 | 68 | 165 | 6.1 | 18.2 | 0.00 | 0.00 | 0.00 | 61 | 1006.3 |
| 20260506083833 | 68 | 181 | 6.1 | 18.2 | 0.00 | 0.00 | 0.00 | 61 | 1006.3 |
| 20260506083734 | 68 | 185 | 6.1 | 18.2 | 0.00 | 0.00 | 0.00 | 61 | 1006.2 |
| 20260506083658 | 68 | 158 | 5.2 | 13.0 | 0.00 | 0.00 | 0.00 | 61 | 1006.2 |
| 20260506083651 | 68 | 168 | 5.2 | 18.2 | 0.00 | 0.00 | 0.00 | 61 | 1006.4 |
| 20260506083430 | 68 | 202 | 5.2 | 13.0 | 0.00 | 0.00 | 0.00 | 61 | 1006.2 |
| 20260506083353 | 68 | 202 | 6.1 | 13.0 | 0.00 | 0.00 | 0.00 | 61 | 1006.3 |
| 20260506083344 | 68 | 171 | 5.2 | 13.0 | 0.00 | 0.00 | 0.00 | 61 | 1006.3 |
| 20260506083131 | 68 | 171 | 6.1 | 13.0 | 0.00 | 0.00 | 0.00 | 61 | 1006.3 |
| 20260506083030 | 68 | 209 | 5.2 | 13.0 | 0.00 | 0.00 | 0.00 | 61 | 1006.2 |
| 20260506082931 | 68 | 165 | 5.2 | 13.0 | 0.00 | 0.00 | 0.00 | 61 | 1006.2 |
| 20260506082830 | 68 | 186 | 5.2 | 13.0 | 0.00 | 0.00 | 0.00 | 61 | 1006.2 |
| 20260506082731 | 68 | 167 | 5.2 | 13.0 | 0.00 | 0.00 | 0.00 | 61 | 1006.2 |
| 20260506082626 | 68 | 162 | 5.2 | 13.0 | 0.00 | 0.00 | 0.00 | 61 | 1006.3 |
| 20260506082528 | 68 | 159 | 5.2 | 15.6 | 0.00 | 0.00 | 0.00 | 61 | 1006.2 |
| 20260506082426 | 68 | 161 | 5.2 | 15.6 | 0.00 | 0.00 | 0.00 | 61 | 1006.2 |
| 20260506082349 | 68 | 141 | 5.2 | 15.6 | 0.00 | 0.00 | 0.00 | 61 | 1006.3 |
| 20260506082342 | 68 | 170 | 5.2 | 15.6 | 0.00 | 0.00 | 0.00 | 61 | 1006.2 |
| 20260506082127 | 68 | 190 | 5.2 | 15.6 | 0.00 | 0.00 | 0.00 | 61 | 1006.3 |
| 20260506082049 | 68 | 162 | 5.2 | 15.6 | 0.00 | 0.00 | 0.00 | 61 | 1006.3 |
| 20260506082042 | 68 | 173 | 5.2 | 15.6 | 0.00 | 0.00 | 0.00 | 61 | 1006.3 |
| 20260506081822 | 68 | 187 | 5.2 | 15.6 | 0.00 | 0.00 | 0.00 | 61 | 1006.3 |
| 20260506081746 | 68 | 165 | 6.1 | 15.6 | 0.00 | 0.00 | 0.00 | 61 | 1006.3 |
| 20260506081737 | 68 | 165 | 5.2 | 15.6 | 0.00 | 0.00 | 0.00 | 61 | 1006.3 |
| 20260506081522 | 68 | 176 | 6.1 | 15.6 | 0.00 | 0.00 | 0.00 | 60 | 1006.3 |
| 20260506081446 | 68 | 230 | 5.2 | 15.6 | 0.00 | 0.00 | 0.00 | 61 | 1006.3 |
| 20260506081438 | 68 | 186 | 5.2 | 15.6 | 0.00 | 0.00 | 0.00 | 60 | 1006.3 |
| 20260506081222 | 68 | 186 | 5.2 | 15.6 | 0.00 | 0.00 | 0.00 | 61 | 1006.2 |
| 20260506081123 | 68 | 188 | 5.2 | 15.6 | 0.00 | 0.00 | 0.00 | 60 | 1006.2 |
| 20260506081016 | 68 | 165 | 5.2 | 15.6 | 0.00 | 0.00 | 0.00 | 60 | 1006.2 |
| 20260506080916 | 68 | 161 | 5.2 | 15.6 | 0.00 | 0.00 | 0.00 | 60 | 1006.2 |
| 20260506080816 | 68 | 140 | 5.2 | 15.6 | 0.00 | 0.00 | 0.00 | 60 | 1006.3 |
| 20260506080715 | 68 | 169 | 5.2 | 15.6 | 0.00 | 0.00 | 0.00 | 60 | 1006.2 |
| 20260506080617 | 68 | 148 | 4.3 | 15.6 | 0.00 | 0.00 | 0.00 | 60 | 1006.2 |
| 20260506080511 | 68 | 168 | 4.3 | 11.3 | 0.00 | 0.00 | 0.00 | 60 | 1006.3 |
| 20260506080412 | 69 | 167 | 4.3 | 11.3 | 0.00 | 0.00 | 0.00 | 60 | 1006.3 |
| 20260506080312 | 69 | 147 | 4.3 | 11.3 | 0.00 | 0.00 | 0.00 | 60 | 1006.3 |
| 20260506080236 | 69 | 194 | 4.3 | 11.3 | 0.00 | 0.00 | 0.00 | 60 | 1006.3 |
| 20260506080227 | 69 | 197 | 4.3 | 11.3 | 0.00 | 0.00 | 0.00 | 60 | 1006.3 |
| 20260506073500 | 69 | 180 | 5.2 | 12.2 | 0.00 | 0.00 | 0.00 | 58 | 1006.3 |
| 20260506073401 | 69 | 161 | 5.2 | 12.2 | 0.00 | 0.00 | 0.00 | 58 | 1006.3 |
| 20260506073319 | 69 | 171 | 4.3 | 13.0 | 0.00 | 0.00 | 0.00 | 58 | 1006.3 |
| 20260506073312 | 69 | 180 | 5.2 | 12.2 | 0.00 | 0.00 | 0.00 | 58 | 1006.3 |
| 20260506073055 | 69 | 182 | 5.2 | 13.0 | 0.00 | 0.00 | 0.00 | 58 | 1006.3 |
| 20260506073019 | 69 | 234 | 5.2 | 13.0 | 0.00 | 0.00 | 0.00 | 58 | 1006.3 |
| 20260506073012 | 69 | 190 | 5.2 | 13.0 | 0.00 | 0.00 | 0.00 | 58 | 1006.3 |
| 20260506072757 | 69 | 145 | 5.2 | 13.0 | 0.00 | 0.00 | 0.00 | 58 | 1006.3 |
| 20260506072656 | 69 | 246 | 5.2 | 13.0 | 0.00 | 0.00 | 0.00 | 58 | 1006.3 |
| 20260506072615 | 69 | 188 | 5.2 | 13.0 | 0.00 | 0.00 | 0.00 | 57 | 1006.4 |
| 20260506072607 | 69 | 157 | 5.2 | 13.0 | 0.00 | 0.00 | 0.00 | 57 | 1006.3 |
| 20260506072351 | 69 | 177 | 5.2 | 13.0 | 0.00 | 0.00 | 0.00 | 57 | 1006.6 |
| 20260506072253 | 69 | 161 | 5.2 | 13.0 | 0.00 | 0.00 | 0.00 | 57 | 1006.6 |
| 20260506072152 | 69 | 197 | 5.2 | 13.0 | 0.00 | 0.00 | 0.00 | 57 | 1006.6 |
| 20260506072139 | 70 | 161 | 5.2 | 13.0 | 0.00 | 0.00 | 0.00 | 57 | 1006.6 |
| 20260506072134 | 70 | 141 | 5.2 | 13.0 | 0.00 | 0.00 | 0.00 | 57 | 1006.4 |
| 20260506072123 | 69 | 187 | 5.2 | 13.0 | 0.00 | 0.00 | 0.00 | 57 | 1006.4 |
| 20260506071753 | 70 | 188 | 5.2 | 13.0 | 0.00 | 0.00 | 0.00 | 57 | 1006.6 |
| 20260506071648 | 70 | 165 | 6.1 | 13.0 | 0.00 | 0.00 | 0.00 | 57 | 1006.6 |
| 20260506071548 | 70 | 146 | 6.1 | 13.0 | 0.00 | 0.00 | 0.00 | 57 | 1006.6 |
| 20260506071447 | 70 | 196 | 6.1 | 13.0 | 0.00 | 0.00 | 0.00 | 57 | 1006.6 |
| 20260506071434 | 70 | 154 | 7.0 | 13.0 | 0.00 | 0.00 | 0.00 | 57 | 1006.4 |
| 20260506071429 | 70 | 145 | 6.1 | 18.2 | 0.00 | 0.00 | 0.00 | 57 | 1006.6 |
| 20260506071418 | 70 | 158 | 6.1 | 13.0 | 0.00 | 0.00 | 0.00 | 57 | 1006.6 |
| 20260506071048 | 70 | 190 | 7.0 | 18.2 | 0.00 | 0.00 | 0.00 | 57 | 1006.4 |
| 20260506070948 | 70 | 178 | 7.0 | 18.2 | 0.00 | 0.00 | 0.00 | 56 | 1006.4 |
| 20260506070845 | 70 | 167 | 6.1 | 18.2 | 0.00 | 0.00 | 0.00 | 57 | 1006.4 |
| 20260506070809 | 70 | 197 | 6.1 | 18.2 | 0.00 | 0.00 | 0.00 | 56 | 1006.6 |
| 20260506070801 | 70 | 185 | 6.1 | 18.2 | 0.00 | 0.00 | 0.00 | 56 | 1006.4 |
| 20260506070545 | 70 | 180 | 6.1 | 18.2 | 0.00 | 0.00 | 0.00 | 56 | 1006.4 |
| 20260506070445 | 70 | 150 | 6.1 | 18.2 | 0.00 | 0.00 | 0.00 | 56 | 1006.6 |
| 20260506070345 | 70 | 165 | 6.1 | 18.2 | 0.00 | 0.00 | 0.00 | 56 | 1006.6 |
| 20260506070244 | 70 | 183 | 6.1 | 18.2 | 0.00 | 0.00 | 0.00 | 56 | 1006.6 |
| 20260506070145 | 70 | 168 | 7.0 | 18.2 | 0.00 | 0.00 | 0.00 | 56 | 1006.6 |
| 20260506062423 | 70 | 180 | 6.1 | 13.9 | 0.00 | 0.00 | 0.00 | 54 | 1007.1 |
| 20260506062324 | 70 | 180 | 5.2 | 13.9 | 0.00 | 0.00 | 0.00 | 54 | 1007.1 |
| 20260506062224 | 70 | 180 | 5.2 | 13.9 | 0.00 | 0.00 | 0.00 | 54 | 1007.2 |
| 20260506062125 | 70 | 167 | 5.2 | 13.9 | 0.00 | 0.00 | 0.00 | 54 | 1007.1 |
| 20260506062020 | 70 | 174 | 5.2 | 13.9 | 0.00 | 0.00 | 0.00 | 54 | 1007.2 |
| 20260506061921 | 70 | 191 | 5.2 | 13.9 | 0.00 | 0.00 | 0.00 | 54 | 1007.1 |
| 20260506061819 | 70 | 223 | 5.2 | 13.9 | 0.00 | 0.00 | 0.00 | 54 | 1007.1 |
| 20260506061721 | 70 | 187 | 5.2 | 13.9 | 0.00 | 0.00 | 0.00 | 54 | 1007.2 |
| 20260506061620 | 70 | 162 | 5.2 | 13.9 | 0.00 | 0.00 | 0.00 | 54 | 1007.1 |
| 20260506061520 | 70 | 162 | 6.1 | 13.9 | 0.00 | 0.00 | 0.00 | 54 | 1007.2 |
| 20260506061422 | 70 | 155 | 6.1 | 13.9 | 0.00 | 0.00 | 0.00 | 54 | 1007.2 |
| 20260506061321 | 70 | 194 | 6.1 | 13.9 | 0.00 | 0.00 | 0.00 | 53 | 1007.2 |
| 20260506061217 | 71 | 196 | 6.1 | 17.4 | 0.00 | 0.00 | 0.00 | 53 | 1007.2 |
| 20260506061117 | 71 | 173 | 6.1 | 17.4 | 0.00 | 0.00 | 0.00 | 53 | 1007.2 |
| 20260506061017 | 71 | 180 | 6.1 | 17.4 | 0.00 | 0.00 | 0.00 | 53 | 1007.2 |
| 20260506060917 | 71 | 126 | 6.1 | 17.4 | 0.00 | 0.00 | 0.00 | 53 | 1007.2 |
| 20260506060816 | 71 | 171 | 6.1 | 17.4 | 0.00 | 0.00 | 0.00 | 53 | 1007.2 |